GW2849 Weather Reports


time (UTC)temp
C
wind
direction
speed
KPH
gust
KPH
rain 1hr
cm
rain 24hr
cm
rain mn
cm
humidity
%
barometer
mb
20260509024702 15 360 3.2 12.9 0.00 0.00 0.00 71 1010.3
20260509024601 15 355 1.6 12.9 0.00 0.00 0.00 71 1010.2
20260509024501 15 13 1.6 16.1 0.00 0.00 0.00 71 1010.1
20260509024402 15 342 3.2 16.1 0.00 0.00 0.00 70 1010.1
20260509024301 15 338 6.4 16.1 0.00 0.00 0.00 70 1010.2
20260509024203 15 337 6.4 16.1 0.00 0.00 0.00 70 1010.2
20260509024001 15 324 4.8 16.1 0.00 0.00 0.00 69 1010.0
20260509023901 16 9 3.2 16.1 0.00 0.00 0.00 68 1009.9
20260509023800 16 335 1.6 16.1 0.00 0.00 0.00 68 1010.0
20260509023701 16 355 3.2 16.1 0.00 0.00 0.00 67 1010.1
20260509023601 16 339 4.8 14.5 0.00 0.00 0.00 66 1010.1
20260509023501 16 360 1.6 8.0 0.00 0.00 0.00 66 1010.0
20260509023401 16 5 6.4 8.0 0.00 0.00 0.00 65 1010.2
20260509023303 16 40 3.2 6.4 0.00 0.00 0.00 64 1010.2
20260509023200 16 347 3.2 6.4 0.00 0.00 0.00 62 1010.1
20260509023102 16 232 3.2 6.4 0.00 0.00 0.00 61 1010.1
20260509023001 16 261 0.0 6.4 0.00 0.00 0.00 60 1009.9
20260509022900 16 257 1.6 6.4 0.00 0.00 0.00 59 1009.8
20260509022559 16 200 0.0 6.4 0.00 0.00 0.00 58 1009.7
20260509022502 16 208 0.0 0.0 0.00 0.00 0.00 59 1009.7
20260509022401 16 198 0.0 0.0 0.00 0.00 0.00 59 1009.6
20260509022306 16 149 0.0 0.0 0.00 0.00 0.00 60 1009.7
20260509022201 16 149 0.0 0.0 0.00 0.00 0.00 59 1009.7
20260509022102 16 149 0.0 0.0 0.00 0.00 0.00 59 1009.7
20260509022001 16 149 0.0 0.0 0.00 0.00 0.00 60 1009.7
20260509021900 16 175 0.0 0.0 0.00 0.00 0.00 60 1009.6
20260509021802 16 175 0.0 0.0 0.00 0.00 0.00 59 1009.6
20260509021701 16 188 0.0 0.0 0.00 0.00 0.00 61 1009.6
20260509021601 16 202 0.0 0.0 0.00 0.00 0.00 61 1009.7
20260509021501 16 202 0.0 0.0 0.00 0.00 0.00 61 1009.7
20260509021401 16 202 0.0 0.0 0.00 0.00 0.00 60 1009.7
20260509021300 16 202 0.0 0.0 0.00 0.00 0.00 61 1009.7
20260509021100 16 202 0.0 0.0 0.00 0.00 0.00 62 1009.7
20260509021002 16 202 0.0 0.0 0.00 0.00 0.00 62 1009.7
20260509020901 16 202 0.0 0.0 0.00 0.00 0.00 60 1009.7
20260509020800 16 202 0.0 0.0 0.00 0.00 0.00 61 1009.7
20260509020700 16 207 0.0 0.0 0.00 0.00 0.00 60 1009.7
20260509020600 16 207 0.0 0.0 0.00 0.00 0.00 60 1009.7
20260509020501 16 207 0.0 0.0 0.00 0.00 0.00 60 1009.6
20260509020301 16 207 0.0 0.0 0.00 0.00 0.00 60 1009.7
20260509020201 16 207 0.0 0.0 0.00 0.00 0.00 62 1009.7
20260509020101 16 210 0.0 0.0 0.00 0.00 0.00 60 1009.7
20260509020000 16 210 0.0 0.0 0.00 0.00 0.00 60 1009.6
20260509015801 16 210 0.0 1.6 0.00 0.00 0.00 60 1009.6
20260509015501 16 210 0.0 3.2 0.00 0.00 0.00 60 1009.7
20260509015300 16 209 0.0 3.2 0.00 0.00 0.00 59 1009.6
20260509015201 16 209 0.0 3.2 0.00 0.00 0.00 60 1009.6
20260509015101 16 209 0.0 3.2 0.00 0.00 0.00 58 1009.6
20260509015000 16 209 0.0 3.2 0.00 0.00 0.00 58 1009.6
20260509014902 16 195 0.0 3.2 0.00 0.00 0.00 59 1009.6
20260509014801 16 221 0.0 1.6 0.00 0.00 0.00 60 1009.6
20260509014700 16 215 0.0 1.6 0.00 0.00 0.00 60 1009.6
20260509014601 16 215 0.0 1.6 0.00 0.00 0.00 60 1009.6
20260509014500 16 215 0.0 3.2 0.00 0.00 0.00 60 1009.6
20260509014400 16 215 0.0 3.2 0.00 0.00 0.00 59 1009.5
20260509014300 16 215 0.0 3.2 0.00 0.00 0.00 59 1009.5
20260509014200 16 215 0.0 3.2 0.00 0.00 0.00 59 1009.5
20260509014000 16 215 0.0 3.2 0.00 0.00 0.00 58 1009.5
20260509013802 16 215 0.0 3.2 0.00 0.00 0.00 60 1009.5
20260509013700 16 215 0.0 3.2 0.00 0.00 0.00 60 1009.4
20260509013600 16 215 0.0 3.2 0.00 0.00 0.00 61 1009.5
20260509013502 17 215 0.0 3.2 0.00 0.00 0.00 61 1009.5
20260509013400 17 215 0.0 4.8 0.00 0.00 0.00 60 1009.5
20260509013300 17 215 0.0 4.8 0.00 0.00 0.00 59 1009.4
20260509013200 17 215 0.0 4.8 0.00 0.00 0.00 59 1009.5
20260509013100 17 215 0.0 4.8 0.00 0.00 0.00 59 1009.5
20260509012901 17 215 0.0 4.8 0.00 0.00 0.00 59 1009.4
20260509012802 17 253 1.6 4.8 0.00 0.00 0.00 60 1009.5
20260509012459 17 184 0.0 4.8 0.00 0.00 0.00 59 1009.6
20260509012402 17 184 0.0 4.8 0.00 0.00 0.00 58 1009.6
20260509012301 17 184 0.0 4.8 0.00 0.00 0.00 58 1009.6
20260509012201 17 184 0.0 4.8 0.00 0.00 0.00 57 1009.6
20260509012102 17 184 0.0 4.8 0.00 0.00 0.00 57 1009.6
20260509011900 17 184 1.6 9.7 0.00 0.00 0.00 57 1009.6
20260509011801 17 244 0.0 9.7 0.00 0.00 0.00 59 1009.7
20260509011601 17 258 0.0 9.7 0.00 0.00 0.00 57 1009.6
20260509011500 17 259 0.0 9.7 0.00 0.00 0.00 56 1009.7
20260509011300 17 336 0.0 9.7 0.00 0.00 0.00 57 1009.7
20260509011200 17 302 1.6 9.7 0.00 0.00 0.00 56 1009.7
20260509011101 17 226 3.2 9.7 0.00 0.00 0.00 57 1009.7
20260509011000 17 223 0.0 8.0 0.00 0.00 0.00 58 1009.7
20260509010902 17 211 0.0 8.0 0.00 0.00 0.00 58 1009.7
20260509010802 17 211 0.0 8.0 0.00 0.00 0.00 58 1009.7
20260509010700 17 211 1.6 8.0 0.00 0.00 0.00 57 1009.8
20260509010602 17 208 1.6 8.0 0.00 0.00 0.00 56 1009.7
20260509010400 17 238 0.0 4.8 0.00 0.00 0.00 57 1009.7
20260509010302 17 250 4.8 4.8 0.00 0.00 0.00 57 1009.7
20260509010101 17 223 0.0 4.8 0.00 0.00 0.00 56 1009.7
20260509010003 17 223 1.6 4.8 0.00 0.00 0.00 56 1009.7
20260509005902 17 216 0.0 4.8 0.00 0.00 0.00 56 1009.6
20260509005801 17 177 1.6 4.8 0.00 0.00 0.00 55 1009.6
20260509005701 17 194 3.2 4.8 0.00 0.00 0.00 55 1009.6
20260509005601 17 217 0.0 4.8 0.00 0.00 0.00 53 1009.5
20260509005402 18 188 4.8 4.8 0.00 0.00 0.00 55 1009.6
20260509005306 18 263 0.0 3.2 0.00 0.00 0.00 54 1009.6
20260509005202 18 263 0.0 4.8 0.00 0.00 0.00 53 1009.5
20260509005101 18 239 0.0 4.8 0.00 0.00 0.00 54 1009.4
20260509004900 18 239 0.0 4.8 0.00 0.00 0.00 53 1009.4
20260509004800 18 225 0.0 4.8 0.00 0.00 0.00 53 1009.4
20260509004600 18 225 0.0 4.8 0.00 0.00 0.00 53 1009.4
20260509004401 18 195 1.6 4.8 0.00 0.00 0.00 52 1009.5
20260509004300 18 211 3.2 3.2 0.00 0.00 0.00 51 1009.4
20260509004101 18 194 0.0 3.2 0.00 0.00 0.00 51 1009.5
20260509004000 18 189 0.0 3.2 0.00 0.00 0.00 51 1009.4
20260509003802 18 207 0.0 3.2 0.00 0.00 0.00 51 1009.4
20260509003602 18 188 0.0 4.8 0.00 0.00 0.00 51 1009.4
20260509003501 18 188 0.0 6.4 0.00 0.00 0.00 51 1009.4
20260509003301 18 188 0.0 6.4 0.00 0.00 0.00 50 1009.3
20260509003204 18 188 0.0 6.4 0.00 0.00 0.00 50 1009.3
20260509003101 18 188 0.0 6.4 0.00 0.00 0.00 50 1009.3
20260509002800 18 164 1.6 6.4 0.00 0.00 0.00 49 1009.3
20260509002700 18 166 1.6 6.4 0.00 0.00 0.00 49 1009.3
20260509002602 18 214 1.6 6.4 0.00 0.00 0.00 50 1009.3
20260509002500 18 198 0.0 6.4 0.00 0.00 0.00 49 1009.2
20260509002400 18 200 0.0 6.4 0.00 0.00 0.00 50 1009.3
20260509002305 18 200 0.0 6.4 0.00 0.00 0.00 49 1009.3
20260509002200 18 202 4.8 6.4 0.00 0.00 0.00 50 1009.2
20260509002100 18 207 0.0 4.8 0.00 0.00 0.00 49 1009.3
20260509001901 18 67 0.0 4.8 0.00 0.00 0.00 49 1009.2
20260509001800 18 310 3.2 4.8 0.00 0.00 0.00 49 1009.2
20260509001700 18 166 0.0 3.2 0.00 0.00 0.00 50 1009.3
20260509001601 18 169 0.0 3.2 0.00 0.00 0.00 50 1009.2
20260509001500 18 169 1.6 3.2 0.00 0.00 0.00 50 1009.3
20260509001400 18 209 0.0 3.2 0.00 0.00 0.00 49 1009.2
20260509001202 18 163 0.0 3.2 0.00 0.00 0.00 50 1009.3
20260509001100 18 163 0.0 4.8 0.00 0.00 0.00 50 1009.3
20260509000901 18 163 0.0 6.4 0.00 0.00 0.00 50 1009.3
20260509000801 18 202 1.6 6.4 0.00 0.00 0.00 50 1009.3
20260509000703 18 213 0.0 6.4 0.00 0.00 0.00 49 1009.3
20260509000602 18 205 0.0 6.4 0.00 0.00 0.00 50 1009.3
20260509000501 18 202 0.0 6.4 0.00 0.00 0.00 49 1009.3
20260509000402 18 202 0.0 6.4 0.00 0.00 0.00 49 1009.4
20260509000303 18 136 0.0 6.4 0.00 0.00 0.00 50 1009.4
20260509000159 18 207 3.2 6.4 0.00 0.00 0.00 49 1009.4
20260509000100 18 171 1.6 6.4 0.00 0.00 0.00 49 1009.3
20260509000004 18 166 0.0 1.6 0.00 0.00 0.00 49 1009.3
20260508235900 18 167 0.0 1.6 0.00 0.00 0.00 49 1009.4
20260508235800 18 203 0.0 1.6 0.00 0.00 0.00 50 1009.4
20260508235701 18 213 0.0 1.6 0.00 0.00 0.00 49 1009.4
20260508235601 18 254 0.0 1.6 0.00 0.00 0.00 50 1009.3
20260508235500 18 254 0.0 4.8 0.00 0.00 0.00 50 1009.3
20260508235401 18 262 0.0 4.8 0.00 0.00 0.00 50 1009.3
20260508235301 18 262 0.0 4.8 0.00 0.00 0.00 49 1009.3
20260508235200 18 262 0.0 6.4 0.00 0.00 0.00 49 1009.2
20260508234803 18 195 0.0 6.4 0.00 0.00 0.00 48 1009.3
20260508234500 18 42 1.6 6.4 0.00 0.00 0.00 48 1009.3
20260508234401 18 195 1.6 6.4 0.00 0.00 0.00 49 1009.3
20260508234301 18 208 3.2 4.8 0.00 0.00 0.00 48 1009.3
20260508234200 18 178 0.0 4.8 0.00 0.00 0.00 48 1009.2
20260508234100 18 159 3.2 4.8 0.00 0.00 0.00 48 1009.3
20260508234000 18 213 3.2 4.8 0.00 0.00 0.00 48 1009.2
20260508233901 18 216 0.0 4.8 0.00 0.00 0.00 48 1009.2
20260508233800 18 216 0.0 4.8 0.00 0.00 0.00 47 1009.2
20260508233700 18 225 1.6 4.8 0.00 0.00 0.00 47 1009.2
20260508233602 18 208 1.6 3.2 0.00 0.00 0.00 47 1009.3
20260508233401 18 212 0.0 4.8 0.00 0.00 0.00 48 1009.2
20260508233300 18 197 0.0 8.0 0.00 0.00 0.00 48 1009.2
20260508233201 18 257 0.0 8.0 0.00 0.00 0.00 49 1009.2
20260508233100 18 256 0.0 8.0 0.00 0.00 0.00 48 1009.2
20260508233000 18 256 0.0 8.0 0.00 0.00 0.00 48 1009.2
20260508232902 18 273 0.0 8.0 0.00 0.00 0.00 48 1009.2
20260508232800 18 189 0.0 8.0 0.00 0.00 0.00 47 1009.2
20260508232701 18 186 0.0 8.0 0.00 0.00 0.00 47 1009.3
20260508232502 19 293 4.8 9.7 0.00 0.00 0.00 47 1009.4
20260508232400 19 228 1.6 9.7 0.00 0.00 0.00 48 1009.3
20260508232301 19 211 0.0 9.7 0.00 0.00 0.00 48 1009.3
20260508232200 19 211 0.0 9.7 0.00 0.00 0.00 47 1009.3
20260508232100 19 273 3.2 9.7 0.00 0.00 0.00 47 1009.4
20260508232002 19 304 0.0 9.7 0.00 0.00 0.00 46 1009.4
20260508231901 19 270 3.2 9.7 0.00 0.00 0.00 47 1009.4
20260508231804 19 168 9.7 9.7 0.00 0.00 0.00 47 1009.3
20260508231700 19 207 0.0 8.0 0.00 0.00 0.00 47 1009.4
20260508231600 19 211 1.6 8.0 0.00 0.00 0.00 46 1009.4
20260508231502 19 188 1.6 8.0 0.00 0.00 0.00 47 1009.3
20260508231401 19 183 1.6 8.0 0.00 0.00 0.00 46 1009.3
20260508231301 19 15 3.2 8.0 0.00 0.00 0.00 47 1009.4
20260508231200 19 204 1.6 6.4 0.00 0.00 0.00 46 1009.4
20260508231102 19 217 3.2 6.4 0.00 0.00 0.00 46 1009.3
20260508231000 19 198 3.2 6.4 0.00 0.00 0.00 46 1009.3
20260508230901 19 180 1.6 6.4 0.00 0.00 0.00 46 1009.3
20260508230801 19 199 4.8 6.4 0.00 0.00 0.00 47 1009.3
20260508230701 19 265 0.0 6.4 0.00 0.00 0.00 46 1009.2
20260508230601 19 25 4.8 6.4 0.00 0.00 0.00 47 1009.2
20260508230500 19 202 3.2 6.4 0.00 0.00 0.00 46 1009.2
20260508230402 19 261 1.6 6.4 0.00 0.00 0.00 47 1009.2
20260508230300 19 215 1.6 6.4 0.00 0.00 0.00 46 1009.2
20260508230201 19 196 1.6 4.8 0.00 0.00 0.00 46 1009.2
20260508230000 19 205 0.0 4.8 0.00 0.00 0.00 46 1009.3
20260508225901 19 210 0.0 4.8 0.00 0.00 0.00 46 1009.2
20260508225800 19 243 0.0 4.8 0.00 0.00 0.00 46 1009.2
20260508225700 19 225 0.0 4.8 0.00 0.00 0.00 46 1009.2
20260508225401 19 171 0.0 6.4 0.00 0.00 0.00 46 1009.2
20260508225301 19 189 0.0 6.4 0.00 0.00 0.00 46 1009.2
20260508225102 19 208 0.0 8.0 0.00 0.00 0.00 45 1009.1
20260508225003 19 186 0.0 8.0 0.00 0.00 0.00 45 1009.1
20260508224901 19 140 3.2 8.0 0.00 0.00 0.00 45 1009.0
20260508224759 19 117 1.6 8.0 0.00 0.00 0.00 46 1009.1
20260508224700 19 213 1.6 8.0 0.00 0.00 0.00 45 1009.1
20260508224601 19 198 0.0 8.0 0.00 0.00 0.00 45 1009.1
20260508224500 19 132 1.6 8.0 0.00 0.00 0.00 45 1009.1
20260508224400 19 234 4.8 8.0 0.00 0.00 0.00 46 1009.1
20260508224301 19 188 0.0 8.0 0.00 0.00 0.00 45 1009.1
20260508224200 19 282 3.2 8.0 0.00 0.00 0.00 45 1009.1
20260508224100 19 227 3.2 8.0 0.00 0.00 0.00 45 1009.1
20260508224001 19 155 1.6 8.0 0.00 0.00 0.00 46 1009.1
20260508223902 19 140 0.0 8.0 0.00 0.00 0.00 45 1009.1
20260508223800 19 181 6.4 8.0 0.00 0.00 0.00 45 1009.1
20260508223700 20 219 6.4 8.0 0.00 0.00 0.00 46 1009.1
20260508223602 20 223 0.0 9.7 0.00 0.00 0.00 46 1009.1
20260508223500 20 304 0.0 9.7 0.00 0.00 0.00 46 1009.1
20260508223400 20 190 0.0 11.3 0.00 0.00 0.00 46 1009.1
20260508223102 20 219 0.0 11.3 0.00 0.00 0.00 45 1009.1
20260508223002 20 217 0.0 11.3 0.00 0.00 0.00 44 1009.0
20260508222800 20 229 3.2 11.3 0.00 0.00 0.00 45 1009.0
20260508222600 20 227 4.8 11.3 0.00 0.00 0.00 45 1009.0
20260508222306 20 156 1.6 8.0 0.00 0.00 0.00 45 1009.1
20260508222201 20 173 1.6 9.7 0.00 0.00 0.00 45 1009.1
20260508222100 20 264 4.8 9.7 0.00 0.00 0.00 45 1009.1
20260508222001 20 160 3.2 11.3 0.00 0.00 0.00 45 1009.1
20260508221801 20 208 3.2 11.3 0.00 0.00 0.00 44 1009.1
20260508221700 20 194 1.6 11.3 0.00 0.00 0.00 44 1009.1
20260508221500 20 129 4.8 11.3 0.00 0.00 0.00 43 1009.1
20260508221302 20 164 8.0 11.3 0.00 0.00 0.00 44 1009.1
20260508221201 20 188 3.2 11.3 0.00 0.00 0.00 44 1009.0
20260508221100 20 205 11.3 11.3 0.00 0.00 0.00 43 1009.0
20260508221001 20 188 3.2 11.3 0.00 0.00 0.00 43 1009.0
20260508220900 20 130 6.4 12.9 0.00 0.00 0.00 44 1009.0
20260508220801 20 188 3.2 12.9 0.00 0.00 0.00 44 1009.0
20260508220700 20 222 8.0 12.9 0.00 0.00 0.00 44 1009.0
20260508220503 20 9 3.2 12.9 0.00 0.00 0.00 45 1009.0
20260508220400 20 153 1.6 12.9 0.00 0.00 0.00 45 1009.0
20260508220301 20 201 3.2 12.9 0.00 0.00 0.00 44 1009.0
20260508220100 20 155 1.6 16.1 0.00 0.00 0.00 44 1008.9
20260508220003 20 195 1.6 12.9 0.00 0.00 0.00 44 1008.9
20260508215900 20 211 6.4 11.3 0.00 0.00 0.00 44 1008.9
20260508215802 20 198 0.0 12.9 0.00 0.00 0.00 43 1008.9
20260508215701 20 168 8.0 12.9 0.00 0.00 0.00 44 1008.9
20260508215500 20 248 1.6 14.5 0.00 0.00 0.00 44 1009.0
20260508215402 20 214 0.0 14.5 0.00 0.00 0.00 44 1008.9
20260508215301 20 152 1.6 14.5 0.00 0.00 0.00 44 1009.0
20260508215200 20 113 3.2 14.5 0.00 0.00 0.00 45 1009.0
20260508215101 20 141 0.0 14.5 0.00 0.00 0.00 44 1009.0
20260508215000 20 141 1.6 14.5 0.00 0.00 0.00 44 1008.9
20260508214802 20 142 4.8 14.5 0.00 0.00 0.00 43 1008.9
20260508214700 20 213 1.6 8.0 0.00 0.00 0.00 43 1008.9
20260508214601 20 209 3.2 8.0 0.00 0.00 0.00 43 1009.0
20260508214500 20 200 0.0 8.0 0.00 0.00 0.00 45 1009.1
20260508214401 20 234 3.2 8.0 0.00 0.00 0.00 43 1009.1
20260508214303 20 288 3.2 12.9 0.00 0.00 0.00 44 1009.0
20260508214203 20 163 3.2 12.9 0.00 0.00 0.00 44 1009.1
20260508214101 20 295 1.6 12.9 0.00 0.00 0.00 43 1008.9
20260508214004 20 150 4.8 12.9 0.00 0.00 0.00 45 1008.9
20260508213901 20 160 1.6 12.9 0.00 0.00 0.00 45 1009.0
20260508213801 20 162 1.6 12.9 0.00 0.00 0.00 44 1009.1
20260508213701 20 165 8.0 12.9 0.00 0.00 0.00 43 1009.1
20260508213600 20 360 1.6 12.9 0.00 0.00 0.00 42 1009.1
20260508213501 20 206 1.6 12.9 0.00 0.00 0.00 44 1009.1
20260508213400 20 213 1.6 12.9 0.00 0.00 0.00 43 1009.1
20260508213301 20 209 4.8 14.5 0.00 0.00 0.00 43 1009.1
20260508213000 20 198 0.0 14.5 0.00 0.00 0.00 43 1009.1
20260508212901 20 261 3.2 14.5 0.00 0.00 0.00 42 1009.1
20260508212702 20 182 3.2 14.5 0.00 0.00 0.00 42 1009.2
20260508212600 21 252 3.2 14.5 0.00 0.00 0.00 41 1009.2
20260508212502 21 171 8.0 14.5 0.00 0.00 0.00 40 1009.2
20260508212400 21 187 8.0 14.5 0.00 0.00 0.00 41 1009.2
20260508212300 21 182 6.4 14.5 0.00 0.00 0.00 42 1009.2
20260508212200 21 160 8.0 14.5 0.00 0.00 0.00 41 1009.2
20260508212101 21 200 1.6 14.5 0.00 0.00 0.00 41 1009.2
20260508211900 21 173 3.2 14.5 0.00 0.00 0.00 41 1009.1
20260508211800 21 220 9.7 9.7 0.00 0.00 0.00 43 1009.1
20260508211702 21 225 1.6 8.0 0.00 0.00 0.00 43 1009.1
20260508211601 21 265 1.6 8.0 0.00 0.00 0.00 43 1009.1
20260508211501 21 267 4.8 11.3 0.00 0.00 0.00 42 1009.1
20260508211401 21 290 0.0 11.3 0.00 0.00 0.00 40 1009.1
20260508211303 21 244 6.4 11.3 0.00 0.00 0.00 41 1009.2
20260508211200 21 186 3.2 11.3 0.00 0.00 0.00 40 1009.3
20260508211000 21 160 0.0 11.3 0.00 0.00 0.00 43 1009.3
20260508210903 21 291 6.4 11.3 0.00 0.00 0.00 43 1009.3
20260508210801 21 131 1.6 11.3 0.00 0.00 0.00 43 1009.3
20260508210700 21 206 1.6 11.3 0.00 0.00 0.00 42 1009.2
20260508210603 21 103 6.4 11.3 0.00 0.00 0.00 44 1009.2
20260508210402 21 194 3.2 11.3 0.00 0.00 0.00 43 1009.3
20260508210301 21 184 3.2 11.3 0.00 0.00 0.00 42 1009.3
20260508210201 21 193 8.0 11.3 0.00 0.00 0.00 41 1009.4
20260508210005 20 191 8.0 11.3 0.00 0.00 0.00 41 1009.5
20260508205900 20 293 6.4 11.3 0.00 0.00 0.00 44 1009.6
20260508205800 20 251 1.6 11.3 0.00 0.00 0.00 43 1009.6
20260508205702 20 252 4.8 11.3 0.00 0.00 0.00 43 1009.6
20260508205500 20 210 8.0 11.3 0.00 0.00 0.00 43 1009.7
20260508205400 20 178 4.8 11.3 0.00 0.00 0.00 42 1009.7
20260508205301 20 207 8.0 11.3 0.00 0.00 0.00 43 1009.6
20260508205202 20 197 8.0 11.3 0.00 0.00 0.00 43 1009.7
20260508205100 20 239 1.6 11.3 0.00 0.00 0.00 43 1009.7
20260508205001 20 193 1.6 19.3 0.00 0.00 0.00 43 1009.7
20260508204900 20 191 4.8 19.3 0.00 0.00 0.00 43 1009.7
20260508204701 20 184 1.6 19.3 0.00 0.00 0.00 44 1009.7
20260508204601 20 186 1.6 19.3 0.00 0.00 0.00 42 1009.7
20260508204500 20 212 1.6 19.3 0.00 0.00 0.00 42 1009.8
20260508204400 20 150 3.2 19.3 0.00 0.00 0.00 43 1009.9
20260508204100 20 190 1.6 19.3 0.00 0.00 0.00 43 1009.9
20260508204002 20 202 4.8 11.3 0.00 0.00 0.00 43 1009.9
20260508203800 20 163 1.6 14.5 0.00 0.00 0.00 44 1009.9
20260508203700 20 192 3.2 14.5 0.00 0.00 0.00 44 1009.9
20260508203602 20 152 0.0 14.5 0.00 0.00 0.00 43 1009.8
20260508203503 20 214 1.6 14.5 0.00 0.00 0.00 43 1009.9
20260508203400 20 267 0.0 14.5 0.00 0.00 0.00 42 1010.0
20260508203302 20 226 6.4 14.5 0.00 0.00 0.00 41 1010.0
20260508203200 20 190 6.4 14.5 0.00 0.00 0.00 42 1010.0
20260508203100 20 164 6.4 14.5 0.00 0.00 0.00 44 1010.1
20260508203001 20 212 1.6 14.5 0.00 0.00 0.00 42 1010.0
20260508202900 20 130 1.6 14.5 0.00 0.00 0.00 42 1010.2
20260508202801 20 204 3.2 14.5 0.00 0.00 0.00 42 1010.0
20260508202703 20 208 3.2 14.5 0.00 0.00 0.00 44 1010.0
20260508202602 20 257 0.0 14.5 0.00 0.00 0.00 43 1010.1
20260508202501 20 184 4.8 14.5 0.00 0.00 0.00 41 1010.1
20260508202306 20 166 6.4 14.5 0.00 0.00 0.00 42 1010.2
20260508202200 20 201 14.5 14.5 0.00 0.00 0.00 41 1010.2
20260508202101 20 183 4.8 14.5 0.00 0.00 0.00 43 1010.1
20260508202000 20 302 6.4 14.5 0.00 0.00 0.00 43 1010.1
20260508201800 20 168 8.0 14.5 0.00 0.00 0.00 43 1010.1
20260508201600 20 242 14.5 14.5 0.00 0.00 0.00 42 1010.2
20260508201500 20 287 8.0 9.7 0.00 0.00 0.00 42 1010.1
20260508201159 20 315 4.8 9.7 0.00 0.00 0.00 44 1010.2
20260508201001 20 188 3.2 9.7 0.00 0.00 0.00 42 1010.3
20260508200900 20 216 3.2 9.7 0.00 0.00 0.00 44 1010.3
20260508200800 20 205 1.6 9.7 0.00 0.00 0.00 42 1010.2
20260508200701 20 191 3.2 11.3 0.00 0.00 0.00 43 1010.2
20260508200502 20 273 0.0 12.9 0.00 0.00 0.00 43 1010.3
20260508200400 20 195 1.6 12.9 0.00 0.00 0.00 44 1010.4
20260508200302 20 184 3.2 12.9 0.00 0.00 0.00 43 1010.3
20260508200200 20 71 1.6 12.9 0.00 0.00 0.00 43 1010.3
20260508200103 20 190 4.8 12.9 0.00 0.00 0.00 45 1010.3
20260508200000 20 254 0.0 12.9 0.00 0.00 0.00 43 1010.4
20260508195859 20 202 1.6 12.9 0.00 0.00 0.00 43 1010.4
20260508195700 20 112 4.8 12.9 0.00 0.00 0.00 43 1010.5
20260508195559 20 204 3.2 9.7 0.00 0.00 0.00 43 1010.5
20260508195259 20 203 4.8 9.7 0.00 0.00 0.00 43 1010.5
20260508195159 20 214 0.0 9.7 0.00 0.00 0.00 44 1010.5
20260508195059 20 193 1.6 9.7 0.00 0.00 0.00 42 1010.5
20260508194859 20 186 6.4 11.3 0.00 0.00 0.00 41 1010.5
20260508194800 20 153 4.8 14.5 0.00 0.00 0.00 42 1010.5
20260508194700 20 196 3.2 14.5 0.00 0.00 0.00 42 1010.4
20260508194559 20 149 3.2 14.5 0.00 0.00 0.00 41 1010.4
20260508194500 20 194 3.2 14.5 0.00 0.00 0.00 42 1010.5
20260508194300 20 186 1.6 14.5 0.00 0.00 0.00 41 1010.5
20260508194159 20 167 6.4 14.5 0.00 0.00 0.00 41 1010.5
20260508194059 20 212 3.2 14.5 0.00 0.00 0.00 42 1010.5
20260508193901 20 192 6.4 14.5 0.00 0.00 0.00 41 1010.5
20260508193759 20 205 6.4 11.3 0.00 0.00 0.00 41 1010.6
20260508193500 20 207 3.2 11.3 0.00 0.00 0.00 41 1010.5
20260508193402 20 202 3.2 11.3 0.00 0.00 0.00 41 1010.6
20260508193259 20 296 1.6 9.7 0.00 0.00 0.00 41 1010.5
20260508193201 20 220 4.8 9.7 0.00 0.00 0.00 40 1010.5
20260508193101 20 199 6.4 9.7 0.00 0.00 0.00 40 1010.6
20260508193001 21 49 1.6 11.3 0.00 0.00 0.00 40 1010.6
20260508192900 21 169 8.0 11.3 0.00 0.00 0.00 41 1010.6
20260508192800 21 116 1.6 11.3 0.00 0.00 0.00 40 1010.6
20260508192700 21 220 3.2 11.3 0.00 0.00 0.00 41 1010.7
20260508192600 21 203 1.6 8.0 0.00 0.00 0.00 41 1010.6
20260508192500 21 196 4.8 8.0 0.00 0.00 0.00 42 1010.6
20260508192300 21 286 0.0 9.7 0.00 0.00 0.00 41 1010.6
20260508192001 20 97 3.2 12.9 0.00 0.00 0.00 41 1010.7
20260508191900 20 222 4.8 12.9 0.00 0.00 0.00 40 1010.6
20260508191800 20 170 1.6 12.9 0.00 0.00 0.00 42 1010.7
20260508191701 20 133 1.6 12.9 0.00 0.00 0.00 40 1010.7
20260508191600 20 215 8.0 17.7 0.00 0.00 0.00 42 1010.8
20260508191500 20 145 4.8 17.7 0.00 0.00 0.00 41 1010.8
20260508191404 20 194 9.7 17.7 0.00 0.00 0.00 41 1010.8
20260508191201 20 176 0.0 17.7 0.00 0.00 0.00 43 1010.9
20260508191100 20 170 6.4 17.7 0.00 0.00 0.00 41 1010.9
20260508191000 20 200 1.6 17.7 0.00 0.00 0.00 40 1010.9
20260508190802 20 314 1.6 17.7 0.00 0.00 0.00 40 1010.9
20260508190700 21 219 3.2 16.1 0.00 0.00 0.00 39 1010.9
20260508190600 21 328 1.6 16.1 0.00 0.00 0.00 38 1011.0
20260508190500 21 211 3.2 16.1 0.00 0.00 0.00 39 1011.0
20260508190300 21 177 4.8 14.5 0.00 0.00 0.00 40 1010.9
20260508190203 21 214 3.2 12.9 0.00 0.00 0.00 40 1011.0
20260508185859 21 214 0.0 12.9 0.00 0.00 0.00 40 1011.1
20260508185659 21 202 4.8 12.9 0.00 0.00 0.00 40 1011.0
20260508185559 21 177 6.4 12.9 0.00 0.00 0.00 42 1011.0
20260508185501 21 209 4.8 12.9 0.00 0.00 0.00 42 1011.1
20260508185359 21 306 3.2 12.9 0.00 0.00 0.00 41 1011.1
20260508185259 21 169 3.2 14.5 0.00 0.00 0.00 39 1011.0
20260508185159 21 217 6.4 20.9 0.00 0.00 0.00 40 1011.1
20260508185059 21 207 9.7 20.9 0.00 0.00 0.00 42 1011.1
20260508185000 21 167 6.4 20.9 0.00 0.00 0.00 43 1011.1
20260508184900 21 321 3.2 20.9 0.00 0.00 0.00 42 1011.0
20260508184800 21 140 0.0 20.9 0.00 0.00 0.00 41 1011.1
20260508184659 21 203 4.8 20.9 0.00 0.00 0.00 40 1011.1
20260508184459 21 146 6.4 20.9 0.00 0.00 0.00 39 1011.1
20260508184400 21 174 3.2 20.9 0.00 0.00 0.00 39 1011.0
20260508184259 21 136 8.0 20.9 0.00 0.00 0.00 38 1011.1
20260508184100 21 225 4.8 16.1 0.00 0.00 0.00 39 1011.2
20260508184001 21 185 12.9 14.5 0.00 0.00 0.00 41 1011.2
20260508183859 21 18 3.2 14.5 0.00 0.00 0.00 39 1011.2
20260508183800 21 125 3.2 16.1 0.00 0.00 0.00 39 1011.2
20260508183700 21 152 4.8 16.1 0.00 0.00 0.00 41 1011.2
20260508183459 21 180 6.4 14.5 0.00 0.00 0.00 42 1011.3
20260508183358 21 160 8.0 14.5 0.00 0.00 0.00 42 1011.3
20260508183300 21 217 3.2 17.7 0.00 0.00 0.00 40 1011.3
20260508183201 21 215 8.0 17.7 0.00 0.00 0.00 41 1011.4
20260508183059 21 223 3.2 17.7 0.00 0.00 0.00 42 1011.4
20260508182959 20 159 1.6 17.7 0.00 0.00 0.00 40 1011.4
20260508182859 20 177 6.4 17.7 0.00 0.00 0.00 38 1011.5
20260508182801 20 196 4.8 17.7 0.00 0.00 0.00 40 1011.5
20260508182701 20 40 3.2 17.7 0.00 0.00 0.00 41 1011.6
20260508182559 20 296 1.6 17.7 0.00 0.00 0.00 40 1011.6
20260508182500 20 183 12.9 17.7 0.00 0.00 0.00 40 1011.6
20260508182358 20 215 11.3 14.5 0.00 0.00 0.00 41 1011.6
20260508182200 20 42 3.2 16.1 0.00 0.00 0.00 38 1011.7
20260508182100 21 267 6.4 16.1 0.00 0.00 0.00 38 1011.7
20260508181959 21 182 3.2 16.1 0.00 0.00 0.00 38 1011.8
20260508181859 21 124 1.6 16.1 0.00 0.00 0.00 39 1011.7
20260508181759 21 223 3.2 17.7 0.00 0.00 0.00 40 1011.8
20260508181701 21 242 1.6 17.7 0.00 0.00 0.00 39 1011.8
20260508181459 21 294 8.0 17.7 0.00 0.00 0.00 40 1011.8
20260508181400 21 344 14.5 17.7 0.00 0.00 0.00 40 1011.7
20260508181259 21 216 4.8 17.7 0.00 0.00 0.00 40 1011.8
20260508181200 21 209 4.8 17.7 0.00 0.00 0.00 43 1011.8
20260508181059 20 311 3.2 17.7 0.00 0.00 0.00 39 1011.8
20260508181001 20 128 4.8 19.3 0.00 0.00 0.00 40 1011.9
20260508180904 20 182 6.4 12.9 0.00 0.00 0.00 41 1011.8
20260508180804 20 156 9.7 14.5 0.00 0.00 0.00 42 1011.8
20260508180700 20 207 6.4 14.5 0.00 0.00 0.00 41 1011.8
20260508180558 20 234 1.6 14.5 0.00 0.00 0.00 44 1011.8
20260508180500 20 5 0.0 14.5 0.00 0.00 0.00 41 1011.9
20260508180400 20 329 4.8 14.5 0.00 0.00 0.00 40 1011.9
20260508180300 20 244 0.0 14.5 0.00 0.00 0.00 40 1011.9
20260508180200 20 172 4.8 17.7 0.00 0.00 0.00 39 1012.0
20260508180059 20 228 1.6 17.7 0.00 0.00 0.00 40 1012.0
20260508175859 20 196 3.2 17.7 0.00 0.00 0.00 38 1012.1
20260508175800 20 236 8.0 17.7 0.00 0.00 0.00 38 1012.0
20260508175659 21 278 3.2 17.7 0.00 0.00 0.00 37 1012.1
20260508175459 21 327 1.6 17.7 0.00 0.00 0.00 39 1012.1
20260508175400 21 217 3.2 17.7 0.00 0.00 0.00 37 1012.0
20260508175259 21 222 8.0 17.7 0.00 0.00 0.00 38 1012.0
20260508175200 21 195 12.9 17.7 0.00 0.00 0.00 38 1012.0
20260508175100 21 171 9.7 16.1 0.00 0.00 0.00 38 1011.9
20260508174959 21 109 11.3 11.3 0.00 0.00 0.00 39 1012.0
20260508174901 21 201 3.2 11.3 0.00 0.00 0.00 40 1012.0
20260508174801 21 256 6.4 11.3 0.00 0.00 0.00 43 1012.0
20260508174700 21 225 4.8 11.3 0.00 0.00 0.00 43 1012.0
20260508174600 21 350 1.6 11.3 0.00 0.00 0.00 43 1011.9
20260508174459 21 302 1.6 11.3 0.00 0.00 0.00 42 1012.0
20260508174400 21 250 6.4 11.3 0.00 0.00 0.00 42 1012.0
20260508174302 21 182 1.6 11.3 0.00 0.00 0.00 44 1012.2
20260508174200 21 211 1.6 11.3 0.00 0.00 0.00 41 1012.1
20260508174100 21 194 4.8 11.3 0.00 0.00 0.00 44 1012.2
20260508174002 21 172 4.8 11.3 0.00 0.00 0.00 44 1012.1
20260508173859 21 169 6.4 9.7 0.00 0.00 0.00 46 1012.1
20260508173801 21 138 4.8 9.7 0.00 0.00 0.00 47 1012.2
20260508173659 21 175 1.6 9.7 0.00 0.00 0.00 43 1012.2
20260508173602 21 205 4.8 9.7 0.00 0.00 0.00 42 1012.2
20260508173401 21 188 3.2 12.9 0.00 0.00 0.00 44 1012.2
20260508173259 21 188 3.2 12.9 0.00 0.00 0.00 42 1012.3
20260508173200 20 185 3.2 12.9 0.00 0.00 0.00 44 1012.3
20260508173059 20 267 3.2 12.9 0.00 0.00 0.00 44 1012.3
20260508172959 20 192 8.0 12.9 0.00 0.00 0.00 44 1012.3
20260508172800 20 207 1.6 12.9 0.00 0.00 0.00 41 1012.2
20260508172659 21 279 3.2 12.9 0.00 0.00 0.00 41 1012.3
20260508172559 21 205 6.4 12.9 0.00 0.00 0.00 42 1012.3
20260508172301 21 209 3.2 11.3 0.00 0.00 0.00 43 1012.4
20260508172159 21 121 4.8 11.3 0.00 0.00 0.00 44 1012.3
20260508172100 21 144 0.0 14.5 0.00 0.00 0.00 45 1012.4
20260508172001 21 148 0.0 14.5 0.00 0.00 0.00 45 1012.4
20260508171859 21 176 4.8 14.5 0.00 0.00 0.00 42 1012.5
20260508171801 21 130 3.2 14.5 0.00 0.00 0.00 42 1012.5
20260508171700 20 132 4.8 14.5 0.00 0.00 0.00 44 1012.6
20260508171603 20 18 3.2 16.1 0.00 0.00 0.00 46 1012.5
20260508171500 20 340 3.2 16.1 0.00 0.00 0.00 43 1012.5
20260508171259 20 120 4.8 16.1 0.00 0.00 0.00 44 1012.5
20260508171159 20 121 14.5 16.1 0.00 0.00 0.00 44 1012.6
20260508171059 20 229 8.0 16.1 0.00 0.00 0.00 43 1012.6
20260508170959 20 196 4.8 16.1 0.00 0.00 0.00 42 1012.6
20260508170900 20 179 4.8 16.1 0.00 0.00 0.00 41 1012.6
20260508170701 20 165 3.2 14.5 0.00 0.00 0.00 44 1012.6
20260508170600 20 342 3.2 14.5 0.00 0.00 0.00 45 1012.6
20260508170501 20 250 3.2 11.3 0.00 0.00 0.00 44 1012.7
20260508170359 20 249 1.6 16.1 0.00 0.00 0.00 44 1012.7
20260508170259 20 240 1.6 16.1 0.00 0.00 0.00 42 1012.7
20260508170200 20 262 6.4 16.1 0.00 0.00 0.00 45 1012.8
20260508170059 20 198 3.2 16.1 0.00 0.00 0.00 45 1012.9
20260508165859 20 166 8.0 16.1 0.00 0.00 0.00 44 1012.9
20260508165800 20 182 8.0 16.1 0.00 0.00 0.00 44 1013.0
20260508165601 20 143 8.0 16.1 0.00 0.00 0.00 43 1013.0
20260508165459 20 264 3.2 16.1 0.00 0.00 0.00 45 1013.1
20260508165300 20 315 3.2 20.9 0.00 0.00 0.00 46 1013.1
20260508165159 20 200 6.4 20.9 0.00 0.00 0.00 46 1013.1
20260508165059 20 193 4.8 20.9 0.00 0.00 0.00 46 1013.1
20260508164959 20 205 4.8 20.9 0.00 0.00 0.00 46 1013.2
20260508164900 20 170 6.4 20.9 0.00 0.00 0.00 44 1013.2
20260508164800 20 292 4.8 20.9 0.00 0.00 0.00 44 1013.2
20260508164659 20 348 3.2 20.9 0.00 0.00 0.00 43 1013.1
20260508164601 20 279 9.7 20.9 0.00 0.00 0.00 43 1013.1
20260508164259 20 266 19.3 19.3 0.00 0.00 0.00 45 1013.3
20260508164200 20 198 4.8 19.3 0.00 0.00 0.00 44 1013.3
20260508164059 20 215 3.2 19.3 0.00 0.00 0.00 44 1013.4
20260508164000 20 38 3.2 19.3 0.00 0.00 0.00 44 1013.4
20260508163859 20 186 4.8 19.3 0.00 0.00 0.00 44 1013.5
20260508163800 20 172 8.0 19.3 0.00 0.00 0.00 45 1013.6
20260508163659 20 191 4.8 8.0 0.00 0.00 0.00 45 1013.6
20260508163600 20 186 1.6 12.9 0.00 0.00 0.00 48 1013.5
20260508163459 20 167 1.6 12.9 0.00 0.00 0.00 46 1013.6
20260508163359 20 244 4.8 12.9 0.00 0.00 0.00 47 1013.6
20260508163258 19 248 3.2 14.5 0.00 0.00 0.00 50 1013.6
20260508163200 19 215 1.6 22.5 0.00 0.00 0.00 50 1013.6
20260508163100 19 270 1.6 22.5 0.00 0.00 0.00 52 1013.7
20260508163001 19 64 0.0 22.5 0.00 0.00 0.00 49 1013.6
20260508162900 19 297 3.2 22.5 0.00 0.00 0.00 48 1013.7
20260508162659 19 188 11.3 22.5 0.00 0.00 0.00 47 1013.7
20260508162600 19 263 4.8 22.5 0.00 0.00 0.00 46 1013.8
20260508162359 19 222 6.4 22.5 0.00 0.00 0.00 45 1013.9
20260508162259 19 189 4.8 19.3 0.00 0.00 0.00 45 1013.8
20260508162201 19 300 8.0 19.3 0.00 0.00 0.00 45 1013.8
20260508162059 19 266 6.4 19.3 0.00 0.00 0.00 44 1013.9
20260508162000 19 201 8.0 19.3 0.00 0.00 0.00 44 1013.8
20260508161900 19 219 6.4 16.1 0.00 0.00 0.00 45 1013.8
20260508161759 19 268 9.7 16.1 0.00 0.00 0.00 45 1013.9
20260508161659 19 232 4.8 17.7 0.00 0.00 0.00 48 1013.9
20260508161600 19 325 3.2 16.1 0.00 0.00 0.00 46 1013.9
20260508161459 19 186 6.4 16.1 0.00 0.00 0.00 47 1013.8
20260508161259 19 202 4.8 16.1 0.00 0.00 0.00 46 1013.8
20260508161159 19 162 6.4 16.1 0.00 0.00 0.00 46 1013.9
20260508161100 19 219 8.0 16.1 0.00 0.00 0.00 47 1013.9
20260508161000 19 188 4.8 16.1 0.00 0.00 0.00 45 1013.8
20260508160800 19 317 3.2 16.1 0.00 0.00 0.00 48 1013.9
20260508160659 19 196 3.2 16.1 0.00 0.00 0.00 47 1013.9
20260508160601 19 161 8.0 16.1 0.00 0.00 0.00 46 1013.9
20260508160359 19 229 1.6 12.9 0.00 0.00 0.00 47 1013.9
20260508160200 19 175 1.6 12.9 0.00 0.00 0.00 49 1014.0
20260508160059 19 141 0.0 12.9 0.00 0.00 0.00 49 1013.8
20260508160005 19 331 4.8 12.9 0.00 0.00 0.00 48 1013.8
20260508155900 19 126 0.0 12.9 0.00 0.00 0.00 48 1013.9
20260508155759 19 223 4.8 12.9 0.00 0.00 0.00 46 1013.9
20260508155500 19 235 1.6 11.3 0.00 0.00 0.00 49 1013.9
20260508155401 18 253 1.6 11.3 0.00 0.00 0.00 50 1013.9
20260508155258 18 102 3.2 11.3 0.00 0.00 0.00 47 1013.9
20260508155200 18 209 6.4 11.3 0.00 0.00 0.00 46 1014.0
20260508155100 18 189 1.6 11.3 0.00 0.00 0.00 47 1014.1
20260508154859 18 302 4.8 12.9 0.00 0.00 0.00 48 1014.0
20260508154759 18 255 3.2 14.5 0.00 0.00 0.00 50 1014.0
20260508154659 18 200 1.6 14.5 0.00 0.00 0.00 48 1014.0
20260508154600 18 257 6.4 14.5 0.00 0.00 0.00 47 1014.1
20260508154501 18 342 1.6 14.5 0.00 0.00 0.00 47 1014.1
20260508154401 18 162 6.4 14.5 0.00 0.00 0.00 48 1014.1
20260508154302 18 178 4.8 14.5 0.00 0.00 0.00 46 1014.1
20260508154159 18 172 3.2 19.3 0.00 0.00 0.00 48 1014.1
20260508154059 18 123 3.2 19.3 0.00 0.00 0.00 47 1014.1
20260508153959 18 232 8.0 19.3 0.00 0.00 0.00 47 1014.2
20260508153901 18 171 9.7 19.3 0.00 0.00 0.00 51 1014.2
20260508153702 18 191 1.6 19.3 0.00 0.00 0.00 48 1014.2
20260508153600 18 171 3.2 19.3 0.00 0.00 0.00 49 1014.2
20260508153500 18 76 0.0 19.3 0.00 0.00 0.00 49 1014.2
20260508153401 18 130 0.0 19.3 0.00 0.00 0.00 47 1014.2
20260508153300 18 213 12.9 19.3 0.00 0.00 0.00 49 1014.2
20260508153201 18 214 1.6 17.7 0.00 0.00 0.00 48 1014.2
20260508153059 18 177 4.8 19.3 0.00 0.00 0.00 50 1014.2
20260508152959 18 306 1.6 19.3 0.00 0.00 0.00 49 1014.2
20260508152901 18 274 3.2 19.3 0.00 0.00 0.00 48 1014.3
20260508152759 18 164 6.4 19.3 0.00 0.00 0.00 47 1014.3
20260508152701 18 271 6.4 19.3 0.00 0.00 0.00 48 1014.2
20260508152601 18 186 6.4 19.3 0.00 0.00 0.00 50 1014.2
20260508152501 18 165 3.2 19.3 0.00 0.00 0.00 48 1014.3
20260508152300 18 332 8.0 19.3 0.00 0.00 0.00 47 1014.3
20260508152059 18 167 4.8 24.1 0.00 0.00 0.00 49 1014.3
20260508151959 18 188 4.8 24.1 0.00 0.00 0.00 48 1014.3
20260508151859 18 208 4.8 24.1 0.00 0.00 0.00 48 1014.3
20260508151759 18 190 4.8 24.1 0.00 0.00 0.00 47 1014.3
20260508151601 18 211 3.2 24.1 0.00 0.00 0.00 48 1014.3
20260508151401 18 217 6.4 24.1 0.00 0.00 0.00 48 1014.3
20260508151259 18 173 1.6 24.1 0.00 0.00 0.00 47 1014.3
20260508151201 18 151 3.2 16.1 0.00 0.00 0.00 47 1014.3
20260508150900 18 215 3.2 12.9 0.00 0.00 0.00 49 1014.4
20260508150802 17 270 1.6 12.9 0.00 0.00 0.00 50 1014.4
20260508150600 17 302 3.2 12.9 0.00 0.00 0.00 50 1014.4
20260508150501 17 220 4.8 12.9 0.00 0.00 0.00 48 1014.5
20260508150300 17 177 11.3 11.3 0.00 0.00 0.00 49 1014.4
20260508150159 17 355 1.6 12.9 0.00 0.00 0.00 51 1014.4
20260508150100 17 212 4.8 12.9 0.00 0.00 0.00 51 1014.5
20260508145959 17 208 1.6 12.9 0.00 0.00 0.00 51 1014.5
20260508145759 17 236 4.8 12.9 0.00 0.00 0.00 49 1014.4
20260508145659 17 250 0.0 12.9 0.00 0.00 0.00 50 1014.4
20260508145559 17 244 4.8 12.9 0.00 0.00 0.00 49 1014.5
20260508145500 17 185 4.8 12.9 0.00 0.00 0.00 50 1014.4
20260508145400 17 218 3.2 12.9 0.00 0.00 0.00 51 1014.4
20260508145300 17 306 1.6 12.9 0.00 0.00 0.00 50 1014.4
20260508145159 17 298 6.4 19.3 0.00 0.00 0.00 48 1014.5
20260508145100 17 265 3.2 19.3 0.00 0.00 0.00 51 1014.5
20260508145001 17 182 8.0 19.3 0.00 0.00 0.00 51 1014.5
20260508144859 17 348 4.8 19.3 0.00 0.00 0.00 50 1014.6
20260508144658 17 173 4.8 19.3 0.00 0.00 0.00 49 1014.5
20260508144600 17 265 3.2 19.3 0.00 0.00 0.00 52 1014.5
20260508144400 17 223 8.0 19.3 0.00 0.00 0.00 49 1014.5
20260508144200 17 217 6.4 16.1 0.00 0.00 0.00 49 1014.5
20260508144000 17 179 6.4 16.1 0.00 0.00 0.00 49 1014.5
20260508143759 17 320 6.4 9.7 0.00 0.00 0.00 50 1014.5
20260508143559 16 138 6.4 9.7 0.00 0.00 0.00 49 1014.4
20260508143500 16 244 4.8 9.7 0.00 0.00 0.00 51 1014.5
20260508143401 16 168 1.6 9.7 0.00 0.00 0.00 52 1014.5
20260508143201 16 309 3.2 9.7 0.00 0.00 0.00 52 1014.4
20260508143100 16 287 3.2 9.7 0.00 0.00 0.00 51 1014.5
20260508142901 16 184 9.7 9.7 0.00 0.00 0.00 51 1014.5
20260508142659 16 163 3.2 9.7 0.00 0.00 0.00 51 1014.6
20260508142501 16 168 3.2 9.7 0.00 0.00 0.00 52 1014.5
20260508142400 16 165 9.7 9.7 0.00 0.00 0.00 52 1014.6
20260508142300 16 171 6.4 9.7 0.00 0.00 0.00 51 1014.5
20260508142200 16 188 4.8 9.7 0.00 0.00 0.00 52 1014.6
20260508142100 16 188 1.6 9.7 0.00 0.00 0.00 53 1014.5
20260508142000 16 255 1.6 9.7 0.00 0.00 0.00 52 1014.6
20260508141859 16 269 0.0 14.5 0.00 0.00 0.00 51 1014.6
20260508141700 16 165 3.2 14.5 0.00 0.00 0.00 52 1014.6
20260508141459 16 221 3.2 14.5 0.00 0.00 0.00 52 1014.6
20260508141400 16 290 3.2 14.5 0.00 0.00 0.00 52 1014.6
20260508141203 15 101 1.6 14.5 0.00 0.00 0.00 50 1014.7
20260508141101 15 228 8.0 9.7 0.00 0.00 0.00 52 1014.6
20260508141000 15 182 4.8 9.7 0.00 0.00 0.00 53 1014.7
20260508140859 15 190 1.6 9.7 0.00 0.00 0.00 53 1014.6
20260508140800 15 244 1.6 9.7 0.00 0.00 0.00 53 1014.6
20260508140500 15 238 1.6 16.1 0.00 0.00 0.00 53 1014.7
20260508140400 15 145 4.8 16.1 0.00 0.00 0.00 52 1014.7
20260508140200 15 247 3.2 16.1 0.00 0.00 0.00 52 1014.7
20260508140100 15 202 3.2 16.1 0.00 0.00 0.00 51 1014.7
20260508140002 15 160 3.2 16.1 0.00 0.00 0.00 52 1014.8
20260508135859 15 208 6.4 16.1 0.00 0.00 0.00 52 1014.8
20260508135759 15 143 1.6 16.1 0.00 0.00 0.00 52 1014.7
20260508135701 15 225 3.2 16.1 0.00 0.00 0.00 52 1014.8
20260508135500 15 166 9.7 12.9 0.00 0.00 0.00 54 1014.7
20260508135359 15 150 1.6 12.9 0.00 0.00 0.00 55 1014.6
20260508135259 15 139 4.8 12.9 0.00 0.00 0.00 55 1014.7
20260508135201 15 161 1.6 12.9 0.00 0.00 0.00 55 1014.7
20260508135100 15 118 0.0 12.9 0.00 0.00 0.00 54 1014.7
20260508134959 15 196 4.8 12.9 0.00 0.00 0.00 54 1014.7
20260508134759 15 171 3.2 12.9 0.00 0.00 0.00 55 1014.8
20260508134700 15 23 0.0 12.9 0.00 0.00 0.00 54 1014.8
20260508134559 14 273 3.2 12.9 0.00 0.00 0.00 56 1014.8
20260508134500 14 165 0.0 12.9 0.00 0.00 0.00 55 1014.7
20260508134400 14 115 1.6 12.9 0.00 0.00 0.00 56 1014.7
20260508134300 14 188 0.0 12.9 0.00 0.00 0.00 54 1014.7
20260508134159 14 207 0.0 12.9 0.00 0.00 0.00 54 1014.7
20260508134059 14 198 4.8 12.9 0.00 0.00 0.00 54 1014.7
20260508134000 14 288 3.2 12.9 0.00 0.00 0.00 54 1014.7
20260508133859 14 168 3.2 12.9 0.00 0.00 0.00 56 1014.7
20260508133759 14 181 0.0 12.9 0.00 0.00 0.00 56 1014.7
20260508133659 13 185 3.2 12.9 0.00 0.00 0.00 56 1014.7
20260508133602 13 173 0.0 12.9 0.00 0.00 0.00 55 1014.7
20260508133459 13 162 6.4 12.9 0.00 0.00 0.00 55 1014.7
20260508133401 13 206 0.0 12.9 0.00 0.00 0.00 55 1014.7
20260508133259 13 32 4.8 12.9 0.00 0.00 0.00 55 1014.7
20260508133200 13 311 3.2 9.7 0.00 0.00 0.00 54 1014.7
20260508133059 13 177 6.4 9.7 0.00 0.00 0.00 55 1014.7
20260508133001 13 37 1.6 9.7 0.00 0.00 0.00 55 1014.7
20260508132859 13 350 4.8 9.7 0.00 0.00 0.00 55 1014.8
20260508132800 13 205 1.6 9.7 0.00 0.00 0.00 54 1014.7
20260508132659 13 105 1.6 11.3 0.00 0.00 0.00 54 1014.7
20260508132559 13 303 8.0 11.3 0.00 0.00 0.00 55 1014.8
20260508132458 13 133 3.2 11.3 0.00 0.00 0.00 54 1014.8
20260508132400 13 314 1.6 11.3 0.00 0.00 0.00 54 1014.8
20260508132301 13 319 4.8 11.3 0.00 0.00 0.00 55 1014.8
20260508132159 13 250 8.0 11.3 0.00 0.00 0.00 56 1014.8
20260508132101 13 302 4.8 11.3 0.00 0.00 0.00 55 1014.7
20260508132000 13 275 3.2 9.7 0.00 0.00 0.00 56 1014.8
20260508131759 13 187 3.2 9.7 0.00 0.00 0.00 55 1014.8
20260508131700 13 190 4.8 9.7 0.00 0.00 0.00 55 1014.8
20260508131559 13 171 3.2 12.9 0.00 0.00 0.00 55 1014.8
20260508131500 13 192 6.4 12.9 0.00 0.00 0.00 55 1014.8
20260508131359 13 310 1.6 12.9 0.00 0.00 0.00 55 1014.8
20260508131300 13 201 3.2 12.9 0.00 0.00 0.00 56 1014.8
20260508131200 13 173 3.2 12.9 0.00 0.00 0.00 57 1014.8
20260508131100 13 305 0.0 12.9 0.00 0.00 0.00 56 1014.7
20260508131000 12 155 1.6 12.9 0.00 0.00 0.00 56 1014.7
20260508130859 12 205 4.8 12.9 0.00 0.00 0.00 57 1014.8
20260508130759 12 215 12.9 12.9 0.00 0.00 0.00 57 1014.7
20260508130500 12 256 1.6 9.7 0.00 0.00 0.00 58 1014.8
20260508130400 12 206 1.6 9.7 0.00 0.00 0.00 56 1014.7
20260508130301 12 207 3.2 9.7 0.00 0.00 0.00 57 1014.7
20260508130159 12 281 3.2 9.7 0.00 0.00 0.00 57 1014.8
20260508125959 12 166 1.6 12.9 0.00 0.00 0.00 57 1014.7
20260508125900 12 202 1.6 12.9 0.00 0.00 0.00 58 1014.7
20260508125759 12 192 3.2 12.9 0.00 0.00 0.00 57 1014.7
20260508125700 12 165 1.6 12.9 0.00 0.00 0.00 57 1014.8
20260508125559 12 279 6.4 12.9 0.00 0.00 0.00 57 1014.7
20260508125501 12 325 1.6 12.9 0.00 0.00 0.00 57 1014.8
20260508125359 12 207 6.4 12.9 0.00 0.00 0.00 56 1014.7
20260508125259 12 207 4.8 12.9 0.00 0.00 0.00 56 1014.8
20260508125200 12 177 9.7 12.9 0.00 0.00 0.00 57 1014.7
20260508125100 12 271 11.3 12.9 0.00 0.00 0.00 57 1014.7
20260508125000 12 265 1.6 8.0 0.00 0.00 0.00 58 1014.6
20260508124859 12 271 3.2 8.0 0.00 0.00 0.00 58 1014.7
20260508124801 12 220 3.2 8.0 0.00 0.00 0.00 59 1014.7
20260508124659 12 298 0.0 8.0 0.00 0.00 0.00 59 1014.6
20260508124459 12 173 1.6 8.0 0.00 0.00 0.00 58 1014.6
20260508124400 12 182 0.0 8.0 0.00 0.00 0.00 58 1014.7
20260508124259 11 186 3.2 8.0 0.00 0.00 0.00 59 1014.6
20260508124200 11 181 0.0 8.0 0.00 0.00 0.00 59 1014.6
20260508124059 11 113 3.2 8.0 0.00 0.00 0.00 58 1014.6
20260508124000 11 213 1.6 8.0 0.00 0.00 0.00 58 1014.7
20260508123900 11 313 1.6 12.9 0.00 0.00 0.00 59 1014.6
20260508123759 11 206 4.8 12.9 0.00 0.00 0.00 58 1014.6
20260508123659 11 236 6.4 12.9 0.00 0.00 0.00 59 1014.5
20260508123600 11 192 0.0 12.9 0.00 0.00 0.00 58 1014.6
20260508123500 11 196 1.6 12.9 0.00 0.00 0.00 59 1014.6
20260508123359 11 220 1.6 12.9 0.00 0.00 0.00 59 1014.6
20260508123259 11 95 1.6 12.9 0.00 0.00 0.00 59 1014.6
20260508123159 11 174 4.8 12.9 0.00 0.00 0.00 59 1014.6
20260508123059 11 200 1.6 12.9 0.00 0.00 0.00 59 1014.6
20260508123003 11 208 6.4 12.9 0.00 0.00 0.00 59 1014.6
20260508122659 11 329 1.6 9.7 0.00 0.00 0.00 59 1014.5
20260508122559 11 205 4.8 9.7 0.00 0.00 0.00 60 1014.5
20260508122501 11 272 0.0 12.9 0.00 0.00 0.00 60 1014.5
20260508122359 11 290 3.2 12.9 0.00 0.00 0.00 59 1014.4
20260508122259 11 182 9.7 12.9 0.00 0.00 0.00 59 1014.5
20260508122200 11 196 3.2 12.9 0.00 0.00 0.00 60 1014.4
20260508122101 11 180 3.2 12.9 0.00 0.00 0.00 60 1014.5
20260508122000 11 183 0.0 12.9 0.00 0.00 0.00 60 1014.5
20260508121901 11 149 4.8 12.9 0.00 0.00 0.00 60 1014.5
20260508121801 10 175 4.8 12.9 0.00 0.00 0.00 61 1014.5
20260508121701 10 205 1.6 12.9 0.00 0.00 0.00 60 1014.5
20260508121601 10 188 9.7 12.9 0.00 0.00 0.00 60 1014.5
20260508121300 10 294 8.0 16.1 0.00 0.00 0.00 61 1014.5
20260508121159 10 182 3.2 16.1 0.00 0.00 0.00 61 1014.5
20260508121059 10 159 6.4 16.1 0.00 0.00 0.00 61 1014.4
20260508121001 10 210 6.4 16.1 0.00 0.00 0.00 61 1014.5
20260508120900 10 230 1.6 16.1 0.00 0.00 0.00 61 1014.4
20260508120700 10 148 4.8 16.1 0.00 0.00 0.00 62 1014.5
20260508120600 10 174 3.2 17.7 0.00 0.00 0.00 62 1014.6
20260508120458 10 206 3.2 17.7 0.00 0.00 0.00 62 1014.5
20260508120401 10 189 3.2 17.7 0.00 0.00 0.00 62 1014.5
20260508120259 10 240 0.0 17.7 0.00 0.00 0.00 62 1014.5
20260508120158 10 197 1.6 17.7 0.00 0.00 0.00 63 1014.5
20260508120058 10 250 3.2 17.7 0.00 0.00 0.00 63 1014.5
20260508120002 10 203 1.6 17.7 0.00 0.00 0.00 63 1014.5
20260508115701 10 197 1.6 8.0 0.00 0.00 0.00 63 1014.6
20260508115600 10 200 1.6 8.0 0.00 0.00 0.00 64 1014.5
20260508115459 10 281 0.0 8.0 0.00 0.00 0.00 63 1014.4
20260508115359 10 167 1.6 8.0 0.00 0.00 0.00 63 1014.4
20260508115259 10 163 3.2 8.0 0.00 0.00 0.00 64 1014.4
20260508115200 10 203 3.2 9.7 0.00 0.00 0.00 64 1014.4
20260508115059 9 206 1.6 9.7 0.00 0.00 0.00 64 1014.3
20260508115000 9 276 0.0 9.7 0.00 0.00 0.00 64 1014.4
20260508114659 9 194 3.2 9.7 0.00 0.00 0.00 65 1014.4
20260508114601 9 216 6.4 12.9 0.00 0.00 0.00 65 1014.3
20260508114301 8 195 9.7 12.9 0.00 0.00 0.00 65 1014.2
20260508114159 8 285 4.8 12.9 0.00 0.00 0.00 65 1014.4
20260508114101 8 186 3.2 12.9 0.00 0.00 0.00 65 1014.3
20260508114000 8 211 1.6 12.9 0.00 0.00 0.00 65 1014.3
20260508113859 8 157 3.2 12.9 0.00 0.00 0.00 65 1014.3
20260508113559 8 192 9.7 11.3 0.00 0.00 0.00 66 1014.3
20260508113400 8 198 4.8 9.7 0.00 0.00 0.00 66 1014.3
20260508113301 8 199 0.0 8.0 0.00 0.00 0.00 66 1014.3
20260508113059 8 178 1.6 8.0 0.00 0.00 0.00 66 1014.3
20260508113000 8 205 1.6 8.0 0.00 0.00 0.00 66 1014.2
20260508112859 8 290 0.0 8.0 0.00 0.00 0.00 66 1014.2
20260508112759 8 175 0.0 8.0 0.00 0.00 0.00 66 1014.2
20260508112659 8 185 8.0 8.0 0.00 0.00 0.00 65 1014.2
20260508112601 8 188 6.4 8.0 0.00 0.00 0.00 66 1014.2
20260508112459 8 197 3.2 8.0 0.00 0.00 0.00 66 1014.2
20260508112359 8 198 1.6 8.0 0.00 0.00 0.00 65 1014.2
20260508112159 8 196 1.6 8.0 0.00 0.00 0.00 65 1014.2
20260508112059 8 266 3.2 8.0 0.00 0.00 0.00 65 1014.2
20260508111959 8 190 1.6 8.0 0.00 0.00 0.00 66 1014.2
20260508111858 8 206 3.2 8.0 0.00 0.00 0.00 65 1014.2
20260508111800 8 190 0.0 8.0 0.00 0.00 0.00 65 1014.2
20260508111701 8 181 0.0 8.0 0.00 0.00 0.00 65 1014.3
20260508111600 8 171 1.6 8.0 0.00 0.00 0.00 65 1014.1
20260508111359 8 175 4.8 8.0 0.00 0.00 0.00 64 1014.2
20260508111259 8 168 8.0 8.0 0.00 0.00 0.00 65 1014.2
20260508111159 8 211 3.2 4.8 0.00 0.00 0.00 65 1014.2
20260508111059 8 212 3.2 4.8 0.00 0.00 0.00 64 1014.2
20260508110959 8 179 0.0 8.0 0.00 0.00 0.00 64 1014.2
20260508110801 8 194 3.2 9.7 0.00 0.00 0.00 65 1014.2
20260508110659 8 234 0.0 9.7 0.00 0.00 0.00 65 1014.2
20260508110600 8 189 0.0 9.7 0.00 0.00 0.00 64 1014.1
20260508110500 8 188 1.6 9.7 0.00 0.00 0.00 64 1014.2
20260508110301 8 341 1.6 9.7 0.00 0.00 0.00 64 1014.1
20260508110158 8 269 0.0 9.7 0.00 0.00 0.00 64 1014.0
20260508110059 8 224 8.0 9.7 0.00 0.00 0.00 64 1014.0
20260508110002 8 240 1.6 9.7 0.00 0.00 0.00 64 1014.0
20260508105859 9 198 0.0 6.4 0.00 0.00 0.00 64 1014.0
20260508105758 9 211 0.0 8.0 0.00 0.00 0.00 64 1013.9
20260508105659 9 195 1.6 9.7 0.00 0.00 0.00 64 1014.0
20260508105559 9 221 0.0 9.7 0.00 0.00 0.00 64 1014.0
20260508105459 9 232 3.2 9.7 0.00 0.00 0.00 64 1014.0
20260508105401 9 223 3.2 9.7 0.00 0.00 0.00 63 1014.0
20260508105259 9 250 4.8 9.7 0.00 0.00 0.00 64 1014.0
20260508105159 9 203 4.8 9.7 0.00 0.00 0.00 64 1013.9
20260508105100 9 208 3.2 9.7 0.00 0.00 0.00 63 1014.0
20260508105000 9 198 1.6 9.7 0.00 0.00 0.00 64 1014.0
20260508104858 9 225 0.0 9.7 0.00 0.00 0.00 64 1014.0
20260508104759 9 234 0.0 9.7 0.00 0.00 0.00 64 1014.0
20260508104659 9 240 0.0 9.7 0.00 0.00 0.00 63 1014.1
20260508104559 9 220 3.2 9.7 0.00 0.00 0.00 63 1014.1
20260508104501 9 215 3.2 9.7 0.00 0.00 0.00 64 1014.0
20260508104359 9 213 3.2 9.7 0.00 0.00 0.00 64 1014.0
20260508104259 9 215 1.6 11.3 0.00 0.00 0.00 63 1014.0
20260508104159 9 196 0.0 11.3 0.00 0.00 0.00 63 1014.0
20260508103859 9 206 3.2 11.3 0.00 0.00 0.00 63 1014.1
20260508103759 9 202 4.8 11.3 0.00 0.00 0.00 63 1014.0
20260508103659 9 226 3.2 11.3 0.00 0.00 0.00 64 1014.0
20260508103600 9 221 4.8 11.3 0.00 0.00 0.00 63 1014.0
20260508103359 9 190 3.2 9.7 0.00 0.00 0.00 63 1014.0
20260508103202 9 191 0.0 8.0 0.00 0.00 0.00 63 1014.0
20260508103100 9 161 3.2 8.0 0.00 0.00 0.00 63 1014.0
20260508102900 9 257 1.6 8.0 0.00 0.00 0.00 63 1014.0
20260508102758 9 164 6.4 8.0 0.00 0.00 0.00 63 1014.0
20260508102701 9 144 1.6 8.0 0.00 0.00 0.00 63 1014.0
20260508102459 9 237 3.2 6.4 0.00 0.00 0.00 63 1014.0
20260508102359 9 211 0.0 6.4 0.00 0.00 0.00 63 1014.1
20260508102259 9 217 1.6 6.4 0.00 0.00 0.00 63 1014.0
20260508102200 9 172 3.2 6.4 0.00 0.00 0.00 63 1014.0
20260508102059 9 190 0.0 6.4 0.00 0.00 0.00 63 1014.0
20260508101959 9 198 0.0 6.4 0.00 0.00 0.00 63 1014.0
20260508101900 9 238 0.0 6.4 0.00 0.00 0.00 63 1014.0
20260508101800 9 219 0.0 6.4 0.00 0.00 0.00 63 1014.0
20260508101600 9 223 6.4 6.4 0.00 0.00 0.00 63 1014.0
20260508101459 9 234 3.2 6.4 0.00 0.00 0.00 63 1014.1
20260508101359 9 275 1.6 8.0 0.00 0.00 0.00 63 1014.0
20260508101258 9 207 3.2 9.7 0.00 0.00 0.00 63 1014.0
20260508101202 9 179 4.8 9.7 0.00 0.00 0.00 63 1014.0
20260508101059 9 209 4.8 9.7 0.00 0.00 0.00 63 1014.1
20260508100958 9 210 1.6 9.7 0.00 0.00 0.00 63 1014.0
20260508100859 9 172 1.6 9.7 0.00 0.00 0.00 62 1014.0
20260508100759 9 254 4.8 9.7 0.00 0.00 0.00 63 1014.1
20260508100700 9 173 4.8 9.7 0.00 0.00 0.00 63 1014.1
20260508100501 9 222 0.0 9.7 0.00 0.00 0.00 62 1014.1
20260508100400 9 177 9.7 11.3 0.00 0.00 0.00 62 1014.1
20260508100259 9 228 1.6 8.0 0.00 0.00 0.00 62 1014.0
20260508100200 9 192 3.2 8.0 0.00 0.00 0.00 63 1014.1
20260508100100 9 215 1.6 8.0 0.00 0.00 0.00 62 1014.1
20260508095958 9 191 1.6 8.0 0.00 0.00 0.00 63 1014.1
20260508095900 9 216 3.2 8.0 0.00 0.00 0.00 62 1014.1
20260508095759 9 189 1.6 8.0 0.00 0.00 0.00 63 1014.1
20260508095659 9 195 0.0 11.3 0.00 0.00 0.00 63 1014.0
20260508095600 9 194 3.2 14.5 0.00 0.00 0.00 63 1014.0
20260508095500 9 197 6.4 14.5 0.00 0.00 0.00 62 1014.0
20260508095401 9 212 0.0 14.5 0.00 0.00 0.00 62 1014.1
20260508095159 9 273 1.6 14.5 0.00 0.00 0.00 62 1014.0
20260508095100 9 184 3.2 14.5 0.00 0.00 0.00 62 1014.0
20260508095000 9 204 4.8 14.5 0.00 0.00 0.00 62 1014.1
20260508094900 9 209 3.2 14.5 0.00 0.00 0.00 61 1014.1
20260508094759 9 232 3.2 14.5 0.00 0.00 0.00 63 1014.1
20260508094659 9 270 3.2 9.7 0.00 0.00 0.00 63 1014.1
20260508094459 9 198 1.6 9.7 0.00 0.00 0.00 63 1014.1
20260508094359 9 198 1.6 9.7 0.00 0.00 0.00 63 1014.0
20260508094259 9 202 3.2 9.7 0.00 0.00 0.00 62 1014.1
20260508094159 9 248 0.0 9.7 0.00 0.00 0.00 62 1014.1
20260508094059 9 188 3.2 9.7 0.00 0.00 0.00 62 1014.1
20260508094000 9 205 0.0 9.7 0.00 0.00 0.00 62 1014.1
20260508093859 9 196 1.6 11.3 0.00 0.00 0.00 62 1014.1
20260508093759 9 192 8.0 11.3 0.00 0.00 0.00 63 1014.1
20260508093700 9 210 1.6 11.3 0.00 0.00 0.00 63 1014.1
20260508093559 9 198 1.6 11.3 0.00 0.00 0.00 63 1014.1
20260508093359 9 143 1.6 8.0 0.00 0.00 0.00 63 1014.1
20260508093259 9 206 3.2 8.0 0.00 0.00 0.00 63 1014.2
20260508093159 9 236 1.6 8.0 0.00 0.00 0.00 62 1014.0
20260508093100 9 167 6.4 8.0 0.00 0.00 0.00 63 1014.1
20260508092958 9 209 0.0 8.0 0.00 0.00 0.00 63 1014.1
20260508092759 9 173 3.2 6.4 0.00 0.00 0.00 63 1014.1
20260508092659 9 346 1.6 6.4 0.00 0.00 0.00 63 1014.1
20260508092559 9 170 3.2 8.0 0.00 0.00 0.00 63 1014.1
20260508092500 8 263 1.6 8.0 0.00 0.00 0.00 63 1014.0
20260508092359 8 345 1.6 9.7 0.00 0.00 0.00 64 1014.0
20260508092259 8 226 0.0 9.7 0.00 0.00 0.00 64 1014.1
20260508092200 8 234 0.0 9.7 0.00 0.00 0.00 64 1014.1
20260508091959 8 187 0.0 9.7 0.00 0.00 0.00 63 1014.1
20260508091858 8 192 1.6 9.7 0.00 0.00 0.00 63 1014.0
20260508091700 8 196 4.8 9.7 0.00 0.00 0.00 64 1014.0
20260508091558 8 200 3.2 9.7 0.00 0.00 0.00 63 1014.0
20260508091501 8 211 6.4 8.0 0.00 0.00 0.00 64 1014.0
20260508091359 8 173 3.2 8.0 0.00 0.00 0.00 64 1014.1
20260508091300 8 194 8.0 8.0 0.00 0.00 0.00 65 1014.1
20260508091159 8 193 4.8 8.0 0.00 0.00 0.00 65 1014.1
20260508091100 8 194 4.8 8.0 0.00 0.00 0.00 65 1014.1
20260508091002 8 17 3.2 6.4 0.00 0.00 0.00 65 1014.1
20260508090859 8 221 1.6 6.4 0.00 0.00 0.00 65 1014.2
20260508090759 8 184 0.0 6.4 0.00 0.00 0.00 65 1014.2
20260508090658 8 283 0.0 6.4 0.00 0.00 0.00 65 1014.1
20260508090600 8 162 0.0 6.4 0.00 0.00 0.00 65 1014.2
20260508090500 8 139 0.0 6.4 0.00 0.00 0.00 65 1014.2
20260508090359 8 202 0.0 6.4 0.00 0.00 0.00 65 1014.2
20260508090100 8 201 3.2 6.4 0.00 0.00 0.00 65 1014.2
20260508085858 8 202 1.6 6.4 0.00 0.00 0.00 65 1014.1
20260508085758 8 208 0.0 6.4 0.00 0.00 0.00 65 1014.1
20260508085659 8 180 3.2 6.4 0.00 0.00 0.00 65 1014.1
20260508085457 8 250 0.0 8.0 0.00 0.00 0.00 65 1014.2
20260508085359 8 213 1.6 8.0 0.00 0.00 0.00 65 1014.1
20260508085258 8 187 3.2 8.0 0.00 0.00 0.00 65 1014.2
20260508085158 8 230 1.6 14.5 0.00 0.00 0.00 65 1014.2
20260508085059 8 201 3.2 14.5 0.00 0.00 0.00 65 1014.1
20260508084958 8 227 1.6 14.5 0.00 0.00 0.00 65 1014.2
20260508084657 8 178 3.2 14.5 0.00 0.00 0.00 65 1014.2
20260508084558 8 200 3.2 14.5 0.00 0.00 0.00 64 1014.1
20260508084359 8 268 1.6 16.1 0.00 0.00 0.00 65 1014.1
20260508084258 8 208 0.0 4.8 0.00 0.00 0.00 65 1014.1
20260508084158 8 197 0.0 9.7 0.00 0.00 0.00 65 1014.0
20260508084058 8 271 0.0 9.7 0.00 0.00 0.00 65 1014.2
20260508083958 8 295 0.0 9.7 0.00 0.00 0.00 65 1014.0
20260508083759 8 198 0.0 9.7 0.00 0.00 0.00 65 1014.0
20260508083659 8 198 3.2 9.7 0.00 0.00 0.00 64 1014.1
20260508083558 8 200 1.6 9.7 0.00 0.00 0.00 64 1014.1
20260508083458 8 223 0.0 9.7 0.00 0.00 0.00 64 1014.1
20260508083258 8 247 1.6 6.4 0.00 0.00 0.00 64 1014.0
20260508083157 8 215 0.0 6.4 0.00 0.00 0.00 64 1014.0
20260508083059 8 180 0.0 6.4 0.00 0.00 0.00 64 1014.0
20260508083000 8 225 0.0 6.4 0.00 0.00 0.00 64 1014.0
20260508082859 8 196 0.0 6.4 0.00 0.00 0.00 64 1014.0
20260508082757 8 192 4.8 6.4 0.00 0.00 0.00 64 1014.0
20260508082701 8 186 1.6 6.4 0.00 0.00 0.00 64 1014.0
20260508082558 8 182 3.2 6.4 0.00 0.00 0.00 64 1014.0
20260508082458 8 208 1.6 6.4 0.00 0.00 0.00 65 1013.9
20260508082258 8 203 1.6 9.7 0.00 0.00 0.00 64 1014.1
20260508082158 8 175 6.4 9.7 0.00 0.00 0.00 64 1014.0
20260508082100 8 213 0.0 9.7 0.00 0.00 0.00 64 1014.0
20260508082000 8 170 1.6 9.7 0.00 0.00 0.00 64 1014.0
20260508081858 8 187 4.8 9.7 0.00 0.00 0.00 64 1014.0
20260508081759 8 234 1.6 9.7 0.00 0.00 0.00 64 1014.0
20260508081658 8 243 0.0 9.7 0.00 0.00 0.00 64 1013.9
20260508081459 8 229 3.2 6.4 0.00 0.00 0.00 64 1014.0
20260508081358 8 214 0.0 6.4 0.00 0.00 0.00 64 1014.1
20260508081258 8 205 1.6 6.4 0.00 0.00 0.00 64 1014.0
20260508081158 8 213 6.4 8.0 0.00 0.00 0.00 64 1014.0
20260508081058 8 198 1.6 6.4 0.00 0.00 0.00 64 1013.9
20260508081000 8 206 0.0 6.4 0.00 0.00 0.00 64 1013.9
20260508080858 8 313 1.6 6.4 0.00 0.00 0.00 64 1013.9
20260508080658 8 214 3.2 6.4 0.00 0.00 0.00 64 1014.0
20260508080558 8 205 0.0 6.4 0.00 0.00 0.00 63 1013.9
20260508080458 8 212 3.2 6.4 0.00 0.00 0.00 63 1013.9
20260508080358 8 210 3.2 6.4 0.00 0.00 0.00 63 1014.0
20260508080258 8 227 0.0 4.8 0.00 0.00 0.00 64 1013.8
20260508080158 8 238 0.0 4.8 0.00 0.00 0.00 65 1013.9
20260508075959 8 227 3.2 4.8 0.00 0.00 0.00 64 1013.9
20260508075758 8 193 0.0 4.8 0.00 0.00 0.00 64 1013.9
20260508075657 8 196 0.0 4.8 0.00 0.00 0.00 64 1013.8
20260508075558 8 196 0.0 4.8 0.00 0.00 0.00 64 1014.0
20260508075358 8 172 1.6 8.0 0.00 0.00 0.00 63 1014.0
20260508075058 8 211 1.6 8.0 0.00 0.00 0.00 63 1013.9
20260508074859 8 182 1.6 8.0 0.00 0.00 0.00 63 1013.9
20260508074758 8 173 1.6 8.0 0.00 0.00 0.00 63 1014.0
20260508074658 8 232 1.6 6.4 0.00 0.00 0.00 63 1014.0
20260508074458 8 191 3.2 6.4 0.00 0.00 0.00 63 1014.0
20260508074359 9 192 0.0 6.4 0.00 0.00 0.00 63 1014.0
20260508074258 9 228 0.0 6.4 0.00 0.00 0.00 62 1014.0
20260508074157 9 216 1.6 6.4 0.00 0.00 0.00 63 1014.0
20260508074058 9 216 1.6 6.4 0.00 0.00 0.00 62 1014.0
20260508073958 9 229 1.6 6.4 0.00 0.00 0.00 63 1014.0
20260508073858 9 261 1.6 6.4 0.00 0.00 0.00 63 1013.9
20260508073759 9 199 0.0 6.4 0.00 0.00 0.00 63 1013.9
20260508073657 9 175 3.2 6.4 0.00 0.00 0.00 62 1013.9
20260508073458 9 228 0.0 0.0 0.00 0.00 0.00 63 1013.8
20260508073358 9 219 0.0 3.2 0.00 0.00 0.00 63 1013.9
20260508073158 9 217 0.0 9.7 0.00 0.00 0.00 62 1013.9
20260508072958 9 210 0.0 9.7 0.00 0.00 0.00 62 1013.8
20260508072900 9 188 0.0 9.7 0.00 0.00 0.00 62 1013.8
20260508072758 9 190 0.0 9.7 0.00 0.00 0.00 62 1013.9
20260508072659 9 197 0.0 9.7 0.00 0.00 0.00 62 1013.9
20260508072557 9 196 0.0 9.7 0.00 0.00 0.00 62 1013.9
20260508072458 9 187 1.6 9.7 0.00 0.00 0.00 62 1013.9
20260508072359 9 198 3.2 9.7 0.00 0.00 0.00 62 1014.0
20260508072259 9 194 3.2 6.4 0.00 0.00 0.00 62 1013.9
20260508072058 9 188 1.6 6.4 0.00 0.00 0.00 62 1014.0
20260508072000 9 232 1.6 1054.1 3.20 0.00 0.00 62
20260508071859 9 217 1.6 8.0 0.00 0.00 0.00 62 1013.9
20260508071759 9 173 0.0 8.0 0.00 0.00 0.00 62 1014.0
20260508071658 9 198 0.0 8.0 0.00 0.00 0.00 62 1014.0
20260508071558 9 213 0.0 8.0 0.00 0.00 0.00 62 1014.0
20260508071458 9 232 1.6 8.0 0.00 0.00 0.00 62 1014.0
20260508071258 9 304 3.2 8.0 0.00 0.00 0.00 62 1014.0
20260508071157 9 314 1.6 8.0 0.00 0.00 0.00 62 1014.0
20260508071059 9 256 6.4 6.4 0.00 0.00 0.00 63 1014.0
20260508070958 9 192 0.0 4.8 0.00 0.00 0.00 63 1013.9
20260508070859 9 194 3.2 4.8 0.00 0.00 0.00 63 1013.9
20260508070759 9 244 1.6 4.8 0.00 0.00 0.00 63 1014.0
20260508070658 9 257 1.6 4.8 0.00 0.00 0.00 63 1014.0
20260508070458 9 196 1.6 8.0 0.00 0.00 0.00 62 1014.0
20260508070300 9 295 0.0 8.0 0.00 0.00 0.00 62 1014.0
20260508070157 9 209 0.0 8.0 0.00 0.00 0.00 62 1014.0
20260508070059 9 209 0.0 8.0 0.00 0.00 0.00 62 1013.9
20260508070000 9 207 0.0 8.0 0.00 0.00 0.00 62 1013.9
20260508065859 9 198 0.0 8.0 0.00 0.00 0.00 61 1013.9
20260508065759 9 187 4.8 8.0 0.00 0.00 0.00 62 1013.9
20260508065701 9 262 0.0 4.8 0.00 0.00 0.00 61 1013.8
20260508065559 9 262 0.0 8.0 0.00 0.00 0.00 61 1013.9
20260508065459 9 193 0.0 8.0 0.00 0.00 0.00 61 1014.0
20260508065400 9 193 3.2 8.0 0.00 0.00 0.00 61 1014.1
20260508065300 9 200 0.0 8.0 0.00 0.00 0.00 61 1014.0
20260508065159 9 201 0.0 8.0 0.00 0.00 0.00 61 1014.1
20260508065059 9 194 1.6 8.0 0.00 0.00 0.00 61 1014.0
20260508064902 9 230 0.0 9.7 0.00 0.00 0.00 60 1014.0
20260508064800 9 138 1.6 9.7 0.00 0.00 0.00 60 1014.0
20260508064659 9 174 9.7 9.7 0.00 0.00 0.00 61 1014.1
20260508064600 9 177 4.8 9.7 0.00 0.00 0.00 60 1014.1
20260508064403 10 231 0.0 9.7 0.00 0.00 0.00 60 1014.2
20260508064259 9 190 3.2 9.7 0.00 0.00 0.00 60 1014.3
20260508064158 10 194 3.2 9.7 0.00 0.00 0.00 60 1014.3
20260508064100 10 205 1.6 9.7 0.00 0.00 0.00 60 1014.3
20260508063759 10 189 1.6 8.0 0.00 0.00 0.00 60 1014.5
20260508063659 10 195 1.6 8.0 0.00 0.00 0.00 60 1014.4
20260508063559 10 175 3.2 8.0 0.00 0.00 0.00 60 1014.5
20260508063501 9 212 0.0 8.0 0.00 0.00 0.00 60 1014.5
20260508063401 9 184 0.0 8.0 0.00 0.00 0.00 60 1014.5
20260508063259 9 242 3.2 4.8 0.00 0.00 0.00 60 1014.6
20260508063201 10 213 1.6 4.8 0.00 0.00 0.00 60 1014.5
20260508063058 9 259 4.8 6.4 0.00 0.00 0.00 60 1014.5
20260508062959 9 313 3.2 6.4 0.00 0.00 0.00 60 1014.6
20260508062800 9 221 0.0 6.4 0.00 0.00 0.00 60 1014.6
20260508062700 9 214 0.0 6.4 0.00 0.00 0.00 60 1014.6
20260508062600 9 188 1.6 6.4 0.00 0.00 0.00 60 1014.5
20260508062500 9 206 3.2 6.4 0.00 0.00 0.00 60 1014.6
20260508062358 9 269 3.2 6.4 0.00 0.00 0.00 60 1014.6
20260508062159 9 312 0.0 9.7 0.00 0.00 0.00 60 1014.6
20260508062059 9 207 1.6 9.7 0.00 0.00 0.00 60 1014.7
20260508062000 9 317 1.6 9.7 0.00 0.00 0.00 60 1014.6
20260508061900 9 186 3.2 9.7 0.00 0.00 0.00 61 1014.6
20260508061800 9 244 3.2 9.7 0.00 0.00 0.00 61 1014.7
20260508061659 9 227 1.6 9.7 0.00 0.00 0.00 61 1014.7
20260508061559 9 227 1.6 9.7 0.00 0.00 0.00 61 1014.6
20260508061458 9 206 3.2 9.7 0.00 0.00 0.00 61 1014.7
20260508061400 9 270 0.0 9.7 0.00 0.00 0.00 61 1014.6
20260508061259 9 275 4.8 9.7 0.00 0.00 0.00 61 1014.7
20260508061200 9 216 0.0 3.2 0.00 0.00 0.00 61 1014.7
20260508061100 9 206 0.0 3.2 0.00 0.00 0.00 61 1014.7
20260508060959 9 211 0.0 3.2 0.00 0.00 0.00 61 1014.7
20260508060801 9 217 0.0 3.2 0.00 0.00 0.00 61 1014.7
20260508060658 9 263 0.0 3.2 0.00 0.00 0.00 61 1014.8
20260508060600 9 190 0.0 3.2 0.00 0.00 0.00 61 1014.8
20260508060359 9 229 0.0 3.2 0.00 0.00 0.00 61 1014.7
20260508060300 9 146 0.0 3.2 0.00 0.00 0.00 61 1014.8
20260508060059 9 217 0.0 4.8 0.00 0.00 0.00 61 1014.8
20260508060000 9 217 0.0 4.8 0.00 0.00 0.00 61 1014.8
20260508055859 9 244 0.0 4.8 0.00 0.00 0.00 62 1014.8
20260508055759 9 255 0.0 4.8 0.00 0.00 0.00 61 1014.8
20260508055658 9 307 0.0 4.8 0.00 0.00 0.00 61 1014.7
20260508055600 9 259 0.0 4.8 0.00 0.00 0.00 61 1014.8
20260508055359 9 215 0.0 4.8 0.00 0.00 0.00 61 1014.7
20260508055300 9 281 0.0 4.8 0.00 0.00 0.00 61 1014.7
20260508055200 9 283 1.6 4.8 0.00 0.00 0.00 60 1014.7
20260508055059 9 292 3.2 3.2 0.00 0.00 0.00 60 1014.7
20260508055000 9 263 0.0 3.2 0.00 0.00 0.00 60 1014.7
20260508054859 9 263 1.6 3.2 0.00 0.00 0.00 60 1014.6
20260508054800 9 196 0.0 3.2 0.00 0.00 0.00 60 1014.6
20260508054659 9 193 1.6 3.2 0.00 0.00 0.00 60 1014.6
20260508054559 9 309 0.0 3.2 0.00 0.00 0.00 60 1014.6
20260508054358 10 277 0.0 4.8 0.00 0.00 0.00 59 1014.6
20260508054301 10 277 3.2 4.8 0.00 0.00 0.00 60 1014.6
20260508054159 10 267 0.0 4.8 0.00 0.00 0.00 59 1014.6
20260508054058 10 275 3.2 4.8 0.00 0.00 0.00 59 1014.7
20260508053959 10 246 0.0 4.8 0.00 0.00 0.00 58 1014.7
20260508053859 10 246 0.0 4.8 0.00 0.00 0.00 58 1014.7
20260508053758 10 248 1.6 4.8 0.00 0.00 0.00 58 1014.6
20260508053700 10 239 3.2 8.0 0.00 0.00 0.00 58 1014.7
20260508053459 10 293 0.0 8.0 0.00 0.00 0.00 58 1014.6
20260508053359 10 286 0.0 8.0 0.00 0.00 0.00 58 1014.6
20260508053301 10 265 0.0 8.0 0.00 0.00 0.00 58 1014.6
20260508053100 10 197 0.0 8.0 0.00 0.00 0.00 57 1014.6
20260508052959 10 169 1.6 8.0 0.00 0.00 0.00 58 1014.6
20260508052901 10 219 4.8 8.0 0.00 0.00 0.00 58 1014.6
20260508052759 10 259 1.6 8.0 0.00 0.00 0.00 57 1014.6
20260508052701 10 291 0.0 8.0 0.00 0.00 0.00 57 1014.6
20260508052559 10 198 3.2 8.0 0.00 0.00 0.00 57 1014.5
20260508052500 10 198 4.8 8.0 0.00 0.00 0.00 58 1014.6
20260508052358 10 321 0.0 8.0 0.00 0.00 0.00 58 1014.6
20260508052259 10 234 1.6 8.0 0.00 0.00 0.00 58 1014.6
20260508052200 10 178 4.8 6.4 0.00 0.00 0.00 58 1014.6
20260508052100 10 252 1.6 4.8 0.00 0.00 0.00 57 1014.6
20260508052000 10 347 3.2 4.8 0.00 0.00 0.00 58 1014.6
20260508051859 10 194 1.6 4.8 0.00 0.00 0.00 58 1014.5
20260508051758 10 187 1.6 4.8 0.00 0.00 0.00 58 1014.6
20260508051700 10 195 0.0 8.0 0.00 0.00 0.00 58 1014.5
20260508051601 10 190 0.0 8.0 0.00 0.00 0.00 57 1014.5
20260508051500 10 192 0.0 8.0 0.00 0.00 0.00 57 1014.5
20260508051400 10 192 0.0 8.0 0.00 0.00 0.00 57 1014.5
20260508051259 10 227 1.6 8.0 0.00 0.00 0.00 57 1014.5
20260508051159 10 227 3.2 8.0 0.00 0.00 0.00 57 1014.6
20260508051101 10 237 0.0 8.0 0.00 0.00 0.00 57 1014.6
20260508051000 10 200 0.0 8.0 0.00 0.00 0.00 57 1014.5
20260508050858 10 202 1.6 8.0 0.00 0.00 0.00 56 1014.6
20260508050800 10 236 0.0 6.4 0.00 0.00 0.00 57 1014.6
20260508050659 10 254 0.0 6.4 0.00 0.00 0.00 56 1014.5
20260508050459 10 219 1.6 9.7 0.00 0.00 0.00 56 1014.5
20260508050359 10 211 1.6 9.7 0.00 0.00 0.00 56 1014.5
20260508050159 10 186 3.2 9.7 0.00 0.00 0.00 56 1014.4
20260508050059 10 274 0.0 9.7 0.00 0.00 0.00 57 1014.4
20260508050000 10 225 0.0 9.7 0.00 0.00 0.00 56 1014.4
20260508045900 10 200 0.0 9.7 0.00 0.00 0.00 56 1014.5
20260508045759 10 218 0.0 9.7 0.00 0.00 0.00 56 1014.5
20260508045658 10 169 8.0 8.0 0.00 0.00 0.00 57 1014.4
20260508045558 10 192 0.0 8.0 0.00 0.00 0.00 56 1014.5
20260508045358 10 204 3.2 8.0 0.00 0.00 0.00 57 1014.4
20260508045059 10 237 3.2 4.8 0.00 0.00 0.00 57 1014.4
20260508044957 10 293 1.6 4.8 0.00 0.00 0.00 57 1014.5
20260508044859 10 212 0.0 4.8 0.00 0.00 0.00 56 1014.5
20260508044759 10 212 0.0 4.8 0.00 0.00 0.00 57 1014.5
20260508044658 10 211 0.0 4.8 0.00 0.00 0.00 56 1014.5
20260508044558 10 211 0.0 4.8 0.00 0.00 0.00 57 1014.6
20260508044458 10 199 4.8 4.8 0.00 0.00 0.00 57 1014.6
20260508044358 10 161 6.4 6.4 0.00 0.00 0.00 58 1014.5
20260508044259 10 200 0.0 4.8 0.00 0.00 0.00 58 1014.5
20260508044200 10 209 1.6 4.8 0.00 0.00 0.00 58 1014.5
20260508044058 10 294 0.0 4.8 0.00 0.00 0.00 57 1014.5
20260508043959 10 223 3.2 4.8 0.00 0.00 0.00 58 1014.6
20260508043758 10 188 1.6 4.8 0.00 0.00 0.00 57 1014.6
20260508043658 10 194 3.2 4.8 0.00 0.00 0.00 57 1014.6
20260508043559 10 261 4.8 4.8 0.00 0.00 0.00 57 1014.6
20260508043258 9 227 0.0 4.8 0.00 0.00 0.00 58 1014.6
20260508043202 9 226 1.6 4.8 0.00 0.00 0.00 57 1014.6
20260508043101 9 226 0.0 3.2 0.00 0.00 0.00 57 1014.6
20260508043001 9 226 0.0 3.2 0.00 0.00 0.00 58 1014.5
20260508042902 9 226 0.0 3.2 0.00 0.00 0.00 58 1014.5
20260508042801 9 226 0.0 3.2 0.00 0.00 0.00 58 1014.5
20260508042701 9 226 0.0 3.2 0.00 0.00 0.00 58 1014.5
20260508042601 9 226 3.2 3.2 0.00 0.00 0.00 58 1014.5
20260508042501 9 229 1.6 1.6 0.00 0.00 0.00 58 1014.5
20260508042402 9 229 0.0 3.2 0.00 0.00 0.00 59 1014.5
20260508042306 9 259 0.0 3.2 0.00 0.00 0.00 59 1014.5
20260508042101 9 217 0.0 3.2 0.00 0.00 0.00 58 1014.5
20260508042002 9 217 0.0 3.2 0.00 0.00 0.00 59 1014.5
20260508041902 9 217 0.0 3.2 0.00 0.00 0.00 59 1014.5
20260508041801 9 217 0.0 3.2 0.00 0.00 0.00 59 1014.5
20260508041702 9 219 0.0 3.2 0.00 0.00 0.00 59 1014.5
20260508041602 9 219 0.0 3.2 0.00 0.00 0.00 59 1014.5
20260508041501 9 229 3.2 4.8 0.00 0.00 0.00 60 1014.6
20260508041401 9 178 0.0 4.8 0.00 0.00 0.00 59 1014.6
20260508041301 9 178 0.0 4.8 0.00 0.00 0.00 59 1014.6
20260508041101 9 184 1.6 4.8 0.00 0.00 0.00 60 1014.5
20260508041002 9 211 0.0 4.8 0.00 0.00 0.00 60 1014.5
20260508040902 9 212 0.0 4.8 0.00 0.00 0.00 60 1014.5
20260508040702 8 207 0.0 4.8 0.00 0.00 0.00 60 1014.4
20260508040501 8 225 0.0 4.8 0.00 0.00 0.00 61 1014.4
20260508040401 8 191 1.6 4.8 0.00 0.00 0.00 61 1014.4
20260508040302 8 211 1.6 4.8 0.00 0.00 0.00 62 1014.5
20260508040202 8 206 0.0 4.8 0.00 0.00 0.00 61 1014.4
20260508040103 8 206 1.6 6.4 0.00 0.00 0.00 62 1014.4
20260508040000 8 231 1.6 3.2 0.00 0.00 0.00 62 1014.3
20260508035901 8 165 0.0 3.2 0.00 0.00 0.00 62 1014.4
20260508035800 8 165 0.0 3.2 0.00 0.00 0.00 63 1014.4
20260508035700 8 165 0.0 3.2 0.00 0.00 0.00 63 1014.4
20260508035501 8 157 0.0 3.2 0.00 0.00 0.00 63 1014.4
20260508035401 8 135 0.0 3.2 0.00 0.00 0.00 64 1014.4
20260508035259 8 135 0.0 3.2 0.00 0.00 0.00 64 1014.5
20260508035201 8 144 0.0 3.2 0.00 0.00 0.00 63 1014.4
20260508035101 8 146 0.0 3.2 0.00 0.00 0.00 64 1014.4
20260508035000 8 183 0.0 3.2 0.00 0.00 0.00 65 1014.4
20260508034859 8 183 0.0 3.2 0.00 0.00 0.00 64 1014.5
20260508034801 8 183 0.0 3.2 0.00 0.00 0.00 65 1014.5
20260508034701 7 183 0.0 3.2 0.00 0.00 0.00 64 1014.5
20260508034601 7 208 0.0 1.6 0.00 0.00 0.00 65 1014.5
20260508034500 7 208 0.0 1.6 0.00 0.00 0.00 65 1014.4
20260508034400 7 208 0.0 1.6 0.00 0.00 0.00 66 1014.4
20260508034159 7 208 0.0 0.0 0.00 0.00 0.00 66 1014.5
20260508034059 7 208 0.0 0.0 0.00 0.00 0.00 66 1014.5
20260508033901 7 208 0.0 0.0 0.00 0.00 0.00 66 1014.5
20260508033800 7 208 0.0 0.0 0.00 0.00 0.00 67 1014.5
20260508033700 7 208 0.0 0.0 0.00 0.00 0.00 66 1014.5
20260508033602 7 208 0.0 0.0 0.00 0.00 0.00 67 1014.6
20260508033400 7 208 0.0 0.0 0.00 0.00 0.00 66 1014.6
20260508033300 7 208 0.0 0.0 0.00 0.00 0.00 66 1014.6
20260508033201 7 208 0.0 1.6 0.00 0.00 0.00 67 1014.6
20260508033100 7 208 0.0 1.6 0.00 0.00 0.00 66 1014.5
20260508032800 7 208 0.0 1.6 0.00 0.00 0.00 66 1014.6
20260508032600 7 208 0.0 1.6 0.00 0.00 0.00 66 1014.7
20260508032501 7 208 0.0 1.6 0.00 0.00 0.00 66 1014.6
20260508032401 7 208 0.0 1.6 0.00 0.00 0.00 65 1014.6
20260508032301 7 208 0.0 0.0 0.00 0.00 0.00 66 1014.6
20260508032200 7 208 0.0 0.0 0.00 0.00 0.00 66 1014.6
20260508032100 7 208 0.0 0.0 0.00 0.00 0.00 67 1014.7
20260508032000 7 208 0.0 0.0 0.00 0.00 0.00 67 1014.6
20260508031900 7 208 0.0 0.0 0.00 0.00 0.00 67 1014.6
20260508031600 7 208 0.0 0.0 0.00 0.00 0.00 69 1014.6
20260508031501 7 208 0.0 0.0 0.00 0.00 0.00 69 1014.5
20260508031259 7 208 0.0 0.0 0.00 0.00 0.00 69 1014.6
20260508031102 7 208 0.0 0.0 0.00 0.00 0.00 69 1014.5
20260508031000 7 208 0.0 0.0 0.00 0.00 0.00 70 1014.5
20260508030902 7 208 0.0 0.0 0.00 0.00 0.00 70 1014.5
20260508030800 7 208 0.0 0.0 0.00 0.00 0.00 70 1014.5
20260508030700 7 208 0.0 0.0 0.00 0.00 0.00 70 1014.5
20260508030600 7 208 0.0 0.0 0.00 0.00 0.00 70 1014.5
20260508030400 7 208 0.0 0.0 0.00 0.00 0.00 70 1014.5
20260508030300 7 208 0.0 0.0 0.00 0.00 0.00 70 1014.5
20260508030159 7 208 0.0 0.0 0.00 0.00 0.00 69 1014.5
20260508030059 7 208 0.0 0.0 0.00 0.00 0.00 68 1014.4
20260508030000 7 208 0.0 0.0 0.00 0.00 0.00 68 1014.5
20260508025903 7 208 0.0 0.0 0.00 0.00 0.00 69 1014.5
20260508025802 7 208 0.0 0.0 0.00 0.00 0.00 69 1014.4
20260508025701 7 208 0.0 0.0 0.00 0.00 0.00 69 1014.5
20260508025601 7 208 0.0 0.0 0.00 0.00 0.00 69 1014.5
20260508025501 7 208 0.0 0.0 0.00 0.00 0.00 69 1014.5
20260508025401 7 208 0.0 0.0 0.00 0.00 0.00 69 1014.5
20260508025305 7 208 0.0 0.0 0.00 0.00 0.00 69 1014.5
20260508025201 7 208 0.0 0.0 0.00 0.00 0.00 69 1014.5
20260508025100 7 208 0.0 0.0 0.00 0.00 0.00 69 1014.5
20260508025001 7 208 0.0 0.0 0.00 0.00 0.00 70 1014.5
20260508024902 7 208 0.0 0.0 0.00 0.00 0.00 70 1014.5
20260508024802 7 208 0.0 0.0 0.00 0.00 0.00 70 1014.5